| time (UTC) | temp F | wind direction | speed MPH | gust MPH | rain 1hr in | rain 24hr in | rain mn in | humidity % | barometer mb |
| 20260508173803 | 73 | 10 | 2.0 | 6.0 | 0.00 | 0.00 | 0.00 | 35 | 1013.4 |
| 20260508173703 | 73 | 10 | 2.0 | 5.0 | 0.00 | 0.00 | 0.00 | 37 | 1013.3 |
| 20260508173603 | 73 | 5 | 2.0 | 5.0 | 0.00 | 0.00 | 0.00 | 38 | 1013.3 |
| 20260508173503 | 73 | 6 | 1.0 | 5.0 | 0.00 | 0.00 | 0.00 | 38 | 1013.3 |
| 20260508173403 | 73 | 6 | 1.0 | 5.0 | 0.00 | 0.00 | 0.00 | 39 | 1013.3 |
| 20260508173304 | 73 | 4 | 1.0 | 5.0 | 0.00 | 0.00 | 0.00 | 35 | 1013.3 |
| 20260508173203 | 73 | 353 | 1.0 | 4.0 | 0.00 | 0.00 | 0.00 | 36 | 1013.3 |
| 20260508173103 | 73 | 338 | 1.0 | 4.0 | 0.00 | 0.00 | 0.00 | 35 | 1013.3 |
| 20260508173004 | 73 | 334 | 1.0 | 4.0 | 0.00 | 0.00 | 0.00 | 37 | 1013.4 |
| 20260508172903 | 73 | 336 | 1.0 | 4.0 | 0.00 | 0.00 | 0.00 | 39 | 1013.4 |
| 20260508172803 | 73 | 337 | 1.0 | 4.0 | 0.00 | 0.00 | 0.00 | 38 | 1013.4 |
| 20260508172703 | 73 | 338 | 1.0 | 4.0 | 0.00 | 0.00 | 0.00 | 36 | 1013.5 |
| 20260508172603 | 72 | 342 | 1.0 | 4.0 | 0.00 | 0.00 | 0.00 | 37 | 1013.5 |
| 20260508172503 | 72 | 343 | 1.0 | 4.0 | 0.00 | 0.00 | 0.00 | 37 | 1013.4 |
| 20260508172404 | 72 | 346 | 2.0 | 4.0 | 0.00 | 0.00 | 0.00 | 38 | 1013.4 |
| 20260508172307 | 72 | 350 | 2.0 | 4.0 | 0.00 | 0.00 | 0.00 | 39 | 1013.4 |
| 20260508172204 | 72 | 353 | 2.0 | 4.0 | 0.00 | 0.00 | 0.00 | 36 | 1013.4 |
| 20260508172103 | 72 | 358 | 2.0 | 4.0 | 0.00 | 0.00 | 0.00 | 40 | 1013.4 |
| 20260508172004 | 72 | 8 | 2.0 | 3.0 | 0.00 | 0.00 | 0.00 | 38 | 1013.6 |
| 20260508171918 | 72 | 10 | 2.0 | 6.0 | 0.00 | 0.00 | 0.00 | 35 | 1013.6 |
| 20260508171903 | 72 | 14 | 2.0 | 6.0 | 0.00 | 0.00 | 0.00 | 37 | 1013.6 |
| 20260508171819 | 72 | 11 | 2.0 | 6.0 | 0.00 | 0.00 | 0.00 | 38 | 1013.6 |
| 20260508171803 | 72 | 10 | 2.0 | 6.0 | 0.00 | 0.00 | 0.00 | 38 | 1013.6 |
| 20260508171718 | 72 | 7 | 2.0 | 6.0 | 0.00 | 0.00 | 0.00 | 37 | 1013.7 |
| 20260508171403 | 72 | 354 | 2.0 | 6.0 | 0.00 | 0.00 | 0.00 | 37 | 1013.7 |
| 20260508171318 | 72 | 345 | 2.0 | 6.0 | 0.00 | 0.00 | 0.00 | 34 | 1013.7 |
| 20260508171304 | 72 | 341 | 2.0 | 6.0 | 0.00 | 0.00 | 0.00 | 34 | 1013.7 |
| 20260508171216 | 72 | 333 | 2.0 | 6.0 | 0.00 | 0.00 | 0.00 | 35 | 1013.7 |
| 20260508171204 | 72 | 326 | 2.0 | 6.0 | 0.00 | 0.00 | 0.00 | 35 | 1013.7 |
| 20260508170903 | 72 | 312 | 1.0 | 3.0 | 0.00 | 0.00 | 0.00 | 41 | 1013.8 |
| 20260508170803 | 72 | 325 | 1.0 | 3.0 | 0.00 | 0.00 | 0.00 | 40 | 1013.8 |
| 20260508170703 | 72 | 343 | 1.0 | 6.0 | 0.00 | 0.00 | 0.00 | 42 | 1013.8 |
| 20260508170618 | 72 | 354 | 1.0 | 6.0 | 0.00 | 0.00 | 0.00 | 38 | 1013.8 |
| 20260508170604 | 72 | 356 | 1.0 | 6.0 | 0.00 | 0.00 | 0.00 | 38 | 1013.8 |
| 20260508170503 | 72 | 5 | 2.0 | 6.0 | 0.00 | 0.00 | 0.00 | 41 | 1013.8 |
| 20260508170303 | 72 | 9 | 2.0 | 6.0 | 0.00 | 0.00 | 0.00 | 39 | 1013.8 |
| 20260508170203 | 72 | 6 | 2.0 | 6.0 | 0.00 | 0.00 | 0.00 | 36 | 1013.8 |
| 20260508170103 | 72 | 4 | 2.0 | 6.0 | 0.00 | 0.00 | 0.00 | 36 | 1013.9 |
| 20260508170005 | 72 | 6 | 2.0 | 6.0 | 0.00 | 0.00 | 0.00 | 35 | 1013.9 |
| 20260508165904 | 72 | 7 | 2.0 | 6.0 | 0.00 | 0.00 | 0.00 | 35 | 1013.9 |
| 20260508165804 | 72 | 8 | 2.0 | 6.0 | 0.00 | 0.00 | 0.00 | 35 | 1013.9 |
| 20260508165618 | 72 | 13 | 2.0 | 5.0 | 0.00 | 0.00 | 0.00 | 36 | 1014.0 |
| 20260508165603 | 72 | 14 | 2.0 | 5.0 | 0.00 | 0.00 | 0.00 | 35 | 1014.0 |
| 20260508165519 | 72 | 16 | 2.0 | 5.0 | 0.00 | 0.00 | 0.00 | 35 | 1014.0 |
| 20260508165504 | 72 | 16 | 2.0 | 5.0 | 0.00 | 0.00 | 0.00 | 36 | 1014.0 |
| 20260508165218 | 72 | 27 | 1.0 | 4.0 | 0.00 | 0.00 | 0.00 | 37 | 1014.0 |
| 20260508165203 | 72 | 33 | 1.0 | 4.0 | 0.00 | 0.00 | 0.00 | 37 | 1014.0 |
| 20260508165104 | 72 | 37 | 1.0 | 4.0 | 0.00 | 0.00 | 0.00 | 39 | 1014.1 |
| 20260508164904 | 72 | 79 | 1.0 | 5.0 | 0.00 | 0.00 | 0.00 | 40 | 1014.1 |
| 20260508164803 | 72 | 130 | 1.0 | 5.0 | 0.00 | 0.00 | 0.00 | 40 | 1014.0 |
| 20260508164703 | 72 | 155 | 1.0 | 5.0 | 0.00 | 0.00 | 0.00 | 37 | 1014.0 |
| 20260508164603 | 72 | 165 | 1.0 | 5.0 | 0.00 | 0.00 | 0.00 | 40 | 1014.2 |
| 20260508164503 | 71 | 174 | 1.0 | 7.0 | 0.00 | 0.00 | 0.00 | 41 | 1014.2 |
| 20260508164403 | 71 | 175 | 1.0 | 7.0 | 0.00 | 0.00 | 0.00 | 40 | 1014.3 |
| 20260508164304 | 71 | 193 | 1.0 | 7.0 | 0.00 | 0.00 | 0.00 | 41 | 1014.3 |
| 20260508164203 | 71 | 182 | 2.0 | 7.0 | 0.00 | 0.00 | 0.00 | 38 | 1014.3 |
| 20260508164103 | 71 | 159 | 2.0 | 7.0 | 0.00 | 0.00 | 0.00 | 41 | 1014.3 |
| 20260508164017 | 71 | 130 | 2.0 | 7.0 | 0.00 | 0.00 | 0.00 | 40 | 1014.3 |
| 20260508164004 | 71 | 124 | 2.0 | 7.0 | 0.00 | 0.00 | 0.00 | 40 | 1014.3 |
| 20260508163904 | 71 | 69 | 2.0 | 7.0 | 0.00 | 0.00 | 0.00 | 39 | 1014.3 |
| 20260508163703 | 71 | 43 | 2.0 | 7.0 | 0.00 | 0.00 | 0.00 | 38 | 1014.3 |
| 20260508163604 | 71 | 35 | 2.0 | 7.0 | 0.00 | 0.00 | 0.00 | 42 | 1014.3 |
| 20260508163503 | 70 | 46 | 2.0 | 4.0 | 0.00 | 0.00 | 0.00 | 41 | 1014.3 |
| 20260508163404 | 70 | 52 | 2.0 | 4.0 | 0.00 | 0.00 | 0.00 | 40 | 1014.3 |
| 20260508163303 | 70 | 54 | 2.0 | 4.0 | 0.00 | 0.00 | 0.00 | 39 | 1014.4 |
| 20260508163203 | 70 | 45 | 2.0 | 4.0 | 0.00 | 0.00 | 0.00 | 38 | 1014.4 |
| 20260508163103 | 70 | 39 | 2.0 | 4.0 | 0.00 | 0.00 | 0.00 | 39 | 1014.4 |
| 20260508163004 | 70 | 36 | 2.0 | 4.0 | 0.00 | 0.00 | 0.00 | 38 | 1014.5 |
| 20260508162903 | 70 | 46 | 1.0 | 4.0 | 0.00 | 0.00 | 0.00 | 41 | 1014.5 |
| 20260508162816 | 70 | 59 | 2.0 | 4.0 | 0.00 | 0.00 | 0.00 | 39 | 1014.5 |
| 20260508162804 | 70 | 54 | 2.0 | 6.0 | 0.00 | 0.00 | 0.00 | 39 | 1014.5 |
| 20260508162704 | 70 | 37 | 2.0 | 8.0 | 0.00 | 0.00 | 0.00 | 37 | 1014.5 |
| 20260508162618 | 70 | 38 | 2.0 | 8.0 | 0.00 | 0.00 | 0.00 | 37 | 1014.5 |
| 20260508162504 | 70 | 27 | 2.0 | 8.0 | 0.00 | 0.00 | 0.00 | 38 | 1014.6 |
| 20260508162306 | 70 | 24 | 2.0 | 8.0 | 0.00 | 0.00 | 0.00 | 38 | 1014.6 |
| 20260508162204 | 70 | 25 | 2.0 | 8.0 | 0.00 | 0.00 | 0.00 | 39 | 1014.6 |
| 20260508162104 | 70 | 26 | 2.0 | 8.0 | 0.00 | 0.00 | 0.00 | 39 | 1014.7 |
| 20260508162003 | 70 | 26 | 2.0 | 8.0 | 0.00 | 0.00 | 0.00 | 41 | 1014.7 |
| 20260508161903 | 70 | 21 | 2.0 | 8.0 | 0.00 | 0.00 | 0.00 | 41 | 1014.7 |
| 20260508161804 | 70 | 21 | 2.0 | 8.0 | 0.00 | 0.00 | 0.00 | 39 | 1014.7 |
| 20260508161704 | 70 | 21 | 2.0 | 6.0 | 0.00 | 0.00 | 0.00 | 40 | 1014.7 |
| 20260508161604 | 70 | 20 | 2.0 | 6.0 | 0.00 | 0.00 | 0.00 | 42 | 1014.7 |
| 20260508161504 | 69 | 17 | 2.0 | 6.0 | 0.00 | 0.00 | 0.00 | 38 | 1014.8 |
| 20260508161404 | 69 | 17 | 2.0 | 6.0 | 0.00 | 0.00 | 0.00 | 42 | 1014.8 |
| 20260508161304 | 69 | 14 | 2.0 | 6.0 | 0.00 | 0.00 | 0.00 | 43 | 1014.8 |
| 20260508161203 | 69 | 11 | 2.0 | 6.0 | 0.00 | 0.00 | 0.00 | 39 | 1014.7 |
| 20260508161103 | 69 | 9 | 2.0 | 6.0 | 0.00 | 0.00 | 0.00 | 38 | 1014.7 |
| 20260508161003 | 69 | 6 | 2.0 | 6.0 | 0.00 | 0.00 | 0.00 | 40 | 1014.8 |
| 20260508160903 | 69 | 4 | 2.0 | 6.0 | 0.00 | 0.00 | 0.00 | 42 | 1014.8 |
| 20260508160803 | 69 | 360 | 2.0 | 4.0 | 0.00 | 0.00 | 0.00 | 41 | 1014.8 |
| 20260508160703 | 69 | 3 | 1.0 | 4.0 | 0.00 | 0.00 | 0.00 | 41 | 1014.9 |
| 20260508160617 | 69 | 11 | 2.0 | 4.0 | 0.00 | 0.00 | 0.00 | 41 | 1014.9 |
| 20260508160603 | 69 | 13 | 2.0 | 4.0 | 0.00 | 0.00 | 0.00 | 41 | 1014.9 |
| 20260508160503 | 69 | 18 | 2.0 | 4.0 | 0.00 | 0.00 | 0.00 | 40 | 1014.9 |
| 20260508160303 | 69 | 19 | 2.0 | 4.0 | 0.00 | 0.00 | 0.00 | 41 | 1015.0 |
| 20260508160203 | 69 | 33 | 2.0 | 4.0 | 0.00 | 0.00 | 0.00 | 39 | 1015.0 |
| 20260508160003 | 69 | 39 | 2.0 | 4.0 | 0.00 | 0.00 | 0.00 | 40 | 1015.1 |
| 20260508155803 | 68 | 36 | 2.0 | 4.0 | 0.00 | 0.00 | 0.00 | 44 | 1015.0 |
| 20260508155717 | 68 | 31 | 2.0 | 4.0 | 0.00 | 0.00 | 0.00 | 42 | 1015.0 |
| 20260508155703 | 68 | 31 | 2.0 | 4.0 | 0.00 | 0.00 | 0.00 | 40 | 1015.0 |
| 20260508155604 | 68 | 23 | 2.0 | 4.0 | 0.00 | 0.00 | 0.00 | 43 | 1015.0 |
| 20260508155403 | 68 | 15 | 2.0 | 4.0 | 0.00 | 0.00 | 0.00 | 40 | 1015.0 |
| 20260508155306 | 68 | 24 | 2.0 | 4.0 | 0.00 | 0.00 | 0.00 | 41 | 1015.0 |
| 20260508155203 | 68 | 21 | 2.0 | 4.0 | 0.00 | 0.00 | 0.00 | 39 | 1015.1 |
| 20260508155103 | 68 | 20 | 2.0 | 4.0 | 0.00 | 0.00 | 0.00 | 39 | 1015.1 |
| 20260508155003 | 68 | 26 | 2.0 | 4.0 | 0.00 | 0.00 | 0.00 | 39 | 1015.2 |
| 20260508154904 | 68 | 25 | 2.0 | 4.0 | 0.00 | 0.00 | 0.00 | 39 | 1015.2 |
| 20260508154818 | 68 | 25 | 1.0 | 4.0 | 0.00 | 0.00 | 0.00 | 42 | 1015.2 |
| 20260508154804 | 68 | 26 | 1.0 | 4.0 | 0.00 | 0.00 | 0.00 | 42 | 1015.2 |
| 20260508154717 | 68 | 25 | 1.0 | 4.0 | 0.00 | 0.00 | 0.00 | 44 | 1015.1 |
| 20260508154619 | 68 | 23 | 1.0 | 4.0 | 0.00 | 0.00 | 0.00 | 40 | 1015.1 |
| 20260508154518 | 68 | 29 | 2.0 | 5.0 | 0.00 | 0.00 | 0.00 | 41 | 1015.1 |
| 20260508154204 | 68 | 14 | 1.0 | 6.0 | 0.00 | 0.00 | 0.00 | 43 | 1015.2 |
| 20260508154103 | 68 | 13 | 1.0 | 6.0 | 0.00 | 0.00 | 0.00 | 44 | 1015.2 |
| 20260508154003 | 68 | 14 | 2.0 | 6.0 | 0.00 | 0.00 | 0.00 | 45 | 1015.2 |
| 20260508153917 | 68 | 15 | 2.0 | 8.0 | 0.00 | 0.00 | 0.00 | 40 | 1015.2 |
| 20260508153903 | 68 | 16 | 2.0 | 8.0 | 0.00 | 0.00 | 0.00 | 40 | 1015.2 |
| 20260508153803 | 68 | 16 | 2.0 | 8.0 | 0.00 | 0.00 | 0.00 | 40 | 1015.2 |
| 20260508153617 | 68 | 10 | 1.0 | 8.0 | 0.00 | 0.00 | 0.00 | 39 | 1015.3 |
| 20260508153604 | 68 | 8 | 1.0 | 8.0 | 0.00 | 0.00 | 0.00 | 39 | 1015.3 |
| 20260508153503 | 68 | 7 | 1.0 | 8.0 | 0.00 | 0.00 | 0.00 | 40 | 1015.3 |
| 20260508153304 | 68 | 14 | 1.0 | 8.0 | 0.00 | 0.00 | 0.00 | 39 | 1015.3 |
| 20260508153203 | 68 | 17 | 1.0 | 8.0 | 0.00 | 0.00 | 0.00 | 42 | 1015.3 |
| 20260508153103 | 68 | 15 | 1.0 | 8.0 | 0.00 | 0.00 | 0.00 | 44 | 1015.3 |
| 20260508153019 | 68 | 12 | 1.0 | 8.0 | 0.00 | 0.00 | 0.00 | 41 | 1015.3 |
| 20260508152903 | 68 | 3 | 1.0 | 4.0 | 0.00 | 0.00 | 0.00 | 44 | 1015.2 |
| 20260508152704 | 67 | 359 | 2.0 | 6.0 | 0.00 | 0.00 | 0.00 | 48 | 1015.4 |
| 20260508152604 | 67 | 360 | 2.0 | 6.0 | 0.00 | 0.00 | 0.00 | 44 | 1015.4 |
| 20260508152503 | 67 | 1 | 2.0 | 6.0 | 0.00 | 0.00 | 0.00 | 45 | 1015.4 |
| 20260508152404 | 67 | 356 | 2.0 | 6.0 | 0.00 | 0.00 | 0.00 | 42 | 1015.4 |
| 20260508152306 | 67 | 355 | 1.0 | 6.0 | 0.00 | 0.00 | 0.00 | 43 | 1015.4 |
| 20260508152204 | 67 | 354 | 1.0 | 6.0 | 0.00 | 0.00 | 0.00 | 44 | 1015.4 |
| 20260508152118 | 67 | 355 | 2.0 | 6.0 | 0.00 | 0.00 | 0.00 | 43 | 1015.5 |
| 20260508152103 | 67 | 356 | 2.0 | 6.0 | 0.00 | 0.00 | 0.00 | 43 | 1015.5 |
| 20260508152003 | 67 | 1 | 2.0 | 6.0 | 0.00 | 0.00 | 0.00 | 44 | 1015.5 |
| 20260508151818 | 67 | 7 | 2.0 | 6.0 | 0.00 | 0.00 | 0.00 | 42 | 1015.5 |
| 20260508151803 | 67 | 9 | 2.0 | 6.0 | 0.00 | 0.00 | 0.00 | 42 | 1015.5 |
| 20260508151703 | 67 | 18 | 2.0 | 5.0 | 0.00 | 0.00 | 0.00 | 44 | 1015.5 |
| 20260508151617 | 67 | 25 | 2.0 | 5.0 | 0.00 | 0.00 | 0.00 | 46 | 1015.5 |
| 20260508151503 | 67 | 32 | 2.0 | 5.0 | 0.00 | 0.00 | 0.00 | 46 | 1015.5 |
| 20260508151303 | 67 | 43 | 2.0 | 5.0 | 0.00 | 0.00 | 0.00 | 48 | 1015.6 |
| 20260508151204 | 66 | 36 | 2.0 | 5.0 | 0.00 | 0.00 | 0.00 | 45 | 1015.6 |
| 20260508151103 | 66 | 34 | 2.0 | 5.0 | 0.00 | 0.00 | 0.00 | 48 | 1015.6 |
| 20260508151004 | 66 | 37 | 2.0 | 5.0 | 0.00 | 0.00 | 0.00 | 48 | 1015.6 |
| 20260508150903 | 66 | 46 | 1.0 | 5.0 | 0.00 | 0.00 | 0.00 | 50 | 1015.6 |
| 20260508150803 | 66 | 29 | 1.0 | 4.0 | 0.00 | 0.00 | 0.00 | 50 | 1015.6 |
| 20260508150703 | 66 | 356 | 1.0 | 4.0 | 0.00 | 0.00 | 0.00 | 49 | 1015.6 |
| 20260508150617 | 66 | 346 | 1.0 | 5.0 | 0.00 | 0.00 | 0.00 | 48 | 1015.5 |
| 20260508150604 | 66 | 348 | 1.0 | 5.0 | 0.00 | 0.00 | 0.00 | 48 | 1015.5 |
| 20260508150504 | 66 | 358 | 2.0 | 5.0 | 0.00 | 0.00 | 0.00 | 47 | 1015.6 |
| 20260508150303 | 65 | 349 | 2.0 | 5.0 | 0.00 | 0.00 | 0.00 | 49 | 1015.6 |
| 20260508150204 | 65 | 350 | 2.0 | 5.0 | 0.00 | 0.00 | 0.00 | 49 | 1015.6 |
| 20260508150017 | 65 | 353 | 2.0 | 5.0 | 0.00 | 0.00 | 0.00 | 51 | 1015.6 |
| 20260508150004 | 65 | 352 | 2.0 | 5.0 | 0.00 | 0.00 | 0.00 | 51 | 1015.7 |
| 20260508145903 | 65 | 357 | 2.0 | 5.0 | 0.00 | 0.00 | 0.00 | 49 | 1015.7 |
| 20260508145703 | 65 | 3 | 2.0 | 6.0 | 0.00 | 0.00 | 0.00 | 51 | 1015.7 |
| 20260508145603 | 65 | 8 | 2.0 | 6.0 | 0.00 | 0.00 | 0.00 | 50 | 1015.6 |
| 20260508145504 | 65 | 360 | 2.0 | 6.0 | 0.00 | 0.00 | 0.00 | 48 | 1015.7 |
| 20260508145404 | 65 | 11 | 2.0 | 6.0 | 0.00 | 0.00 | 0.00 | 48 | 1015.7 |
| 20260508145306 | 65 | 6 | 1.0 | 6.0 | 0.00 | 0.00 | 0.00 | 48 | 1015.7 |
| 20260508145203 | 65 | 9 | 2.0 | 6.0 | 0.00 | 0.00 | 0.00 | 47 | 1015.7 |
| 20260508145103 | 65 | 10 | 2.0 | 6.0 | 0.00 | 0.00 | 0.00 | 47 | 1015.7 |
| 20260508145003 | 65 | 20 | 1.0 | 6.0 | 0.00 | 0.00 | 0.00 | 48 | 1015.7 |
| 20260508144904 | 65 | 40 | 1.0 | 6.0 | 0.00 | 0.00 | 0.00 | 48 | 1015.7 |
| 20260508144803 | 64 | 71 | 1.0 | 6.0 | 0.00 | 0.00 | 0.00 | 49 | 1015.7 |
| 20260508144717 | 64 | 40 | 1.0 | 6.0 | 0.00 | 0.00 | 0.00 | 49 | 1015.7 |
| 20260508144703 | 64 | 37 | 1.0 | 6.0 | 0.00 | 0.00 | 0.00 | 49 | 1015.8 |
| 20260508144603 | 64 | 19 | 2.0 | 6.0 | 0.00 | 0.00 | 0.00 | 50 | 1015.8 |
| 20260508144403 | 64 | 358 | 2.0 | 6.0 | 0.00 | 0.00 | 0.00 | 55 | 1015.7 |
| 20260508144304 | 64 | 1 | 2.0 | 6.0 | 0.00 | 0.00 | 0.00 | 53 | 1015.8 |
| 20260508144203 | 64 | 2 | 2.0 | 6.0 | 0.00 | 0.00 | 0.00 | 51 | 1015.8 |
| 20260508144103 | 64 | 3 | 2.0 | 6.0 | 0.00 | 0.00 | 0.00 | 50 | 1015.8 |
| 20260508143903 | 63 | 6 | 2.0 | 5.0 | 0.00 | 0.00 | 0.00 | 51 | 1015.8 |
| 20260508143803 | 63 | 5 | 2.0 | 5.0 | 0.00 | 0.00 | 0.00 | 51 | 1015.7 |
| 20260508143704 | 63 | 7 | 2.0 | 5.0 | 0.00 | 0.00 | 0.00 | 50 | 1015.7 |
| 20260508143604 | 63 | 8 | 2.0 | 6.0 | 0.00 | 0.00 | 0.00 | 50 | 1015.7 |
| 20260508143503 | 63 | 12 | 2.0 | 6.0 | 0.00 | 0.00 | 0.00 | 52 | 1015.8 |
| 20260508143403 | 63 | 14 | 2.0 | 6.0 | 0.00 | 0.00 | 0.00 | 52 | 1015.8 |
| 20260508143303 | 63 | 13 | 2.0 | 6.0 | 0.00 | 0.00 | 0.00 | 52 | 1015.8 |
| 20260508143203 | 63 | 14 | 2.0 | 6.0 | 0.00 | 0.00 | 0.00 | 52 | 1015.8 |
| 20260508143103 | 63 | 16 | 2.0 | 6.0 | 0.00 | 0.00 | 0.00 | 53 | 1015.8 |
| 20260508143004 | 63 | 15 | 2.0 | 6.0 | 0.00 | 0.00 | 0.00 | 55 | 1015.9 |
| 20260508142903 | 63 | 11 | 2.0 | 6.0 | 0.00 | 0.00 | 0.00 | 56 | 1015.9 |
| 20260508142804 | 63 | 11 | 2.0 | 6.0 | 0.00 | 0.00 | 0.00 | 56 | 1015.9 |
| 20260508142703 | 62 | 8 | 2.0 | 6.0 | 0.00 | 0.00 | 0.00 | 53 | 1015.9 |
| 20260508142617 | 62 | 6 | 2.0 | 6.0 | 0.00 | 0.00 | 0.00 | 53 | 1015.9 |
| 20260508142603 | 62 | 6 | 2.0 | 5.0 | 0.00 | 0.00 | 0.00 | 53 | 1015.9 |
| 20260508142504 | 62 | 3 | 2.0 | 5.0 | 0.00 | 0.00 | 0.00 | 54 | 1015.9 |
| 20260508142418 | 62 | 3 | 2.0 | 5.0 | 0.00 | 0.00 | 0.00 | 54 | 1015.9 |
| 20260508142306 | 62 | 1 | 2.0 | 5.0 | 0.00 | 0.00 | 0.00 | 55 | 1015.9 |
| 20260508142217 | 62 | 354 | 2.0 | 4.0 | 0.00 | 0.00 | 0.00 | 55 | 1015.9 |
| 20260508142103 | 62 | 346 | 2.0 | 4.0 | 0.00 | 0.00 | 0.00 | 56 | 1015.9 |
| 20260508142019 | 62 | 345 | 1.0 | 4.0 | 0.00 | 0.00 | 0.00 | 56 | 1015.9 |
| 20260508141904 | 62 | 338 | 1.0 | 4.0 | 0.00 | 0.00 | 0.00 | 57 | 1015.9 |
| 20260508141718 | 62 | 316 | 1.0 | 4.0 | 0.00 | 0.00 | 0.00 | 55 | 1016.0 |
| 20260508141703 | 62 | 315 | 1.0 | 4.0 | 0.00 | 0.00 | 0.00 | 56 | 1016.0 |
| 20260508141603 | 62 | 281 | 1.0 | 4.0 | 0.00 | 0.00 | 0.00 | 57 | 1016.0 |
| 20260508141404 | 62 | 220 | 1.0 | 4.0 | 0.00 | 0.00 | 0.00 | 59 | 1016.0 |
| 20260508141303 | 62 | 207 | 1.0 | 4.0 | 0.00 | 0.00 | 0.00 | 57 | 1016.0 |
| 20260508141204 | 62 | 182 | 1.0 | 4.0 | 0.00 | 0.00 | 0.00 | 58 | 1016.1 |
| 20260508141104 | 62 | 170 | 1.0 | 4.0 | 0.00 | 0.00 | 0.00 | 62 | 1016.1 |
| 20260508141003 | 62 | 171 | 1.0 | 3.0 | 0.00 | 0.00 | 0.00 | 61 | 1016.1 |
| 20260508140903 | 61 | 156 | 1.0 | 3.0 | 0.00 | 0.00 | 0.00 | 59 | 1016.1 |
| 20260508140804 | 61 | 141 | 1.0 | 3.0 | 0.00 | 0.00 | 0.00 | 59 | 1016.1 |
| 20260508140703 | 61 | 126 | 1.0 | 3.0 | 0.00 | 0.00 | 0.00 | 59 | 1016.0 |
| 20260508140603 | 61 | 111 | 1.0 | 3.0 | 0.00 | 0.00 | 0.00 | 62 | 1016.0 |
| 20260508140504 | 61 | 96 | 1.0 | 3.0 | 0.00 | 0.00 | 0.00 | 64 | 1016.0 |
| 20260508140403 | 61 | 86 | 1.0 | 3.0 | 0.00 | 0.00 | 0.00 | 64 | 1016.1 |
| 20260508140318 | 61 | 79 | 1.0 | 3.0 | 0.00 | 0.00 | 0.00 | 63 | 1016.1 |
| 20260508140304 | 61 | 75 | 1.0 | 3.0 | 0.00 | 0.00 | 0.00 | 63 | 1016.1 |
| 20260508140203 | 61 | 61 | 1.0 | 3.0 | 0.00 | 0.00 | 0.00 | 63 | 1016.1 |
| 20260508140003 | 60 | 44 | 1.0 | 3.0 | 0.00 | 0.00 | 0.00 | 64 | 1016.1 |
| 20260508135919 | 60 | 33 | 1.0 | 3.0 | 0.00 | 0.00 | 0.00 | 64 | 1016.2 |
| 20260508135903 | 60 | 33 | 1.0 | 3.0 | 0.00 | 0.00 | 0.00 | 66 | 1016.2 |
| 20260508135804 | 60 | 29 | 1.0 | 3.0 | 0.00 | 0.00 | 0.00 | 65 | 1016.1 |
| 20260508135604 | 60 | 40 | 1.0 | 3.0 | 0.00 | 0.00 | 0.00 | 64 | 1016.1 |
| 20260508135503 | 60 | 50 | 1.0 | 3.0 | 0.00 | 0.00 | 0.00 | 64 | 1016.1 |
| 20260508135404 | 60 | 61 | 1.0 | 3.0 | 0.00 | 0.00 | 0.00 | 65 | 1016.0 |
| 20260508135306 | 59 | 65 | 1.0 | 3.0 | 0.00 | 0.00 | 0.00 | 65 | 1016.1 |
| 20260508135217 | 59 | 68 | 1.0 | 3.0 | 0.00 | 0.00 | 0.00 | 66 | 1016.1 |
| 20260508135203 | 59 | 69 | 1.0 | 3.0 | 0.00 | 0.00 | 0.00 | 66 | 1016.1 |
| 20260508135103 | 59 | 62 | 1.0 | 3.0 | 0.00 | 0.00 | 0.00 | 66 | 1016.0 |
| 20260508134903 | 59 | 62 | 1.0 | 3.0 | 0.00 | 0.00 | 0.00 | 69 | 1016.1 |
| 20260508134817 | 59 | 59 | 1.0 | 3.0 | 0.00 | 0.00 | 0.00 | 69 | 1016.1 |
| 20260508134803 | 59 | 58 | 1.0 | 3.0 | 0.00 | 0.00 | 0.00 | 69 | 1016.1 |
| 20260508134704 | 59 | 45 | 1.0 | 4.0 | 0.00 | 0.00 | 0.00 | 69 | 1016.1 |
| 20260508134503 | 59 | 20 | 1.0 | 4.0 | 0.00 | 0.00 | 0.00 | 72 | 1016.1 |
| 20260508134403 | 58 | 14 | 1.0 | 4.0 | 0.00 | 0.00 | 0.00 | 70 | 1016.1 |
| 20260508134304 | 58 | 10 | 1.0 | 4.0 | 0.00 | 0.00 | 0.00 | 68 | 1016.1 |
| 20260508134203 | 58 | 4 | 1.0 | 4.0 | 0.00 | 0.00 | 0.00 | 68 | 1016.1 |
| 20260508134103 | 58 | 357 | 1.0 | 4.0 | 0.00 | 0.00 | 0.00 | 68 | 1016.1 |
| 20260508134004 | 58 | 355 | 1.0 | 4.0 | 0.00 | 0.00 | 0.00 | 68 | 1016.0 |
| 20260508133903 | 58 | 349 | 1.0 | 4.0 | 0.00 | 0.00 | 0.00 | 68 | 1016.0 |
| 20260508133803 | 58 | 344 | 1.0 | 4.0 | 0.00 | 0.00 | 0.00 | 68 | 1016.1 |
| 20260508133704 | 58 | 336 | 1.0 | 4.0 | 0.00 | 0.00 | 0.00 | 71 | 1016.1 |
| 20260508133603 | 58 | 331 | 1.0 | 2.0 | 0.00 | 0.00 | 0.00 | 71 | 1016.0 |
| 20260508133504 | 58 | 331 | 1.0 | 2.0 | 0.00 | 0.00 | 0.00 | 72 | 1016.0 |
| 20260508133403 | 57 | 331 | 1.0 | 2.0 | 0.00 | 0.00 | 0.00 | 72 | 1016.0 |
| 20260508133303 | 57 | 331 | 1.0 | 2.0 | 0.00 | 0.00 | 0.00 | 73 | 1016.0 |
| 20260508133203 | 57 | 331 | 1.0 | 2.0 | 0.00 | 0.00 | 0.00 | 73 | 1016.0 |
| 20260508133103 | 57 | 331 | 1.0 | 3.0 | 0.00 | 0.00 | 0.00 | 74 | 1016.0 |
| 20260508133003 | 56 | 328 | 1.0 | 3.0 | 0.00 | 0.00 | 0.00 | 75 | 1016.1 |
| 20260508132903 | 56 | 328 | 1.0 | 3.0 | 0.00 | 0.00 | 0.00 | 75 | 1016.1 |
| 20260508132803 | 56 | 326 | 1.0 | 3.0 | 0.00 | 0.00 | 0.00 | 75 | 1016.1 |
| 20260508132703 | 56 | 323 | 1.0 | 3.0 | 0.00 | 0.00 | 0.00 | 77 | 1016.1 |
| 20260508132604 | 56 | 321 | 1.0 | 3.0 | 0.00 | 0.00 | 0.00 | 77 | 1016.1 |
| 20260508132517 | 55 | 316 | 1.0 | 3.0 | 0.00 | 0.00 | 0.00 | 77 | 1016.1 |
| 20260508132503 | 55 | 316 | 1.0 | 3.0 | 0.00 | 0.00 | 0.00 | 79 | 1016.1 |
| 20260508132418 | 55 | 315 | 0.0 | 3.0 | 0.00 | 0.00 | 0.00 | 79 | 1016.1 |
| 20260508132404 | 55 | 314 | 0.0 | 3.0 | 0.00 | 0.00 | 0.00 | 79 | 1016.1 |
| 20260508132103 | 55 | 288 | 0.0 | 2.0 | 0.00 | 0.00 | 0.00 | 81 | 1016.1 |
| 20260508132003 | 55 | 281 | 0.0 | 1.0 | 0.00 | 0.00 | 0.00 | 81 | 1016.1 |
| 20260508131903 | 55 | 281 | 0.0 | 1.0 | 0.00 | 0.00 | 0.00 | 82 | 1016.1 |
| 20260508131804 | 55 | 281 | 0.0 | 2.0 | 0.00 | 0.00 | 0.00 | 82 | 1016.0 |
| 20260508131617 | 54 | 281 | 0.0 | 2.0 | 0.00 | 0.00 | 0.00 | 82 | 1016.0 |
| 20260508131503 | 54 | 281 | 0.0 | 2.0 | 0.00 | 0.00 | 0.00 | 82 | 1016.1 |
| 20260508131304 | 54 | 281 | 0.0 | 2.0 | 0.00 | 0.00 | 0.00 | 82 | 1016.2 |
| 20260508131203 | 54 | 281 | 1.0 | 2.0 | 0.00 | 0.00 | 0.00 | 83 | 1016.2 |
| 20260508131103 | 54 | 281 | 0.0 | 2.0 | 0.00 | 0.00 | 0.00 | 84 | 1016.2 |
| 20260508131003 | 53 | 281 | 0.0 | 2.0 | 0.00 | 0.00 | 0.00 | 85 | 1016.0 |
| 20260508130903 | 53 | 280 | 0.0 | 2.0 | 0.00 | 0.00 | 0.00 | 85 | 1016.0 |
| 20260508130803 | 53 | 280 | 0.0 | 2.0 | 0.00 | 0.00 | 0.00 | 86 | 1016.0 |
| 20260508130718 | 53 | 280 | 0.0 | 2.0 | 0.00 | 0.00 | 0.00 | 86 | 1016.0 |
| 20260508130703 | 53 | 280 | 0.0 | 2.0 | 0.00 | 0.00 | 0.00 | 87 | 1016.0 |
| 20260508130404 | 52 | 280 | 1.0 | 2.0 | 0.00 | 0.00 | 0.00 | 87 | 1016.0 |
| 20260508130303 | 52 | 280 | 1.0 | 2.0 | 0.00 | 0.00 | 0.00 | 87 | 1016.0 |
| 20260508130204 | 52 | 280 | 1.0 | 2.0 | 0.00 | 0.00 | 0.00 | 89 | 1016.0 |
| 20260508130004 | 52 | 280 | 1.0 | 2.0 | 0.00 | 0.00 | 0.00 | 90 | 1015.9 |
| 20260508125903 | 51 | 280 | 1.0 | 2.0 | 0.00 | 0.00 | 0.00 | 90 | 1015.9 |
| 20260508125803 | 51 | 280 | 1.0 | 2.0 | 0.00 | 0.00 | 0.00 | 91 | 1015.9 |
| 20260508125604 | 51 | 280 | 1.0 | 2.0 | 0.00 | 0.00 | 0.00 | 91 | 1015.9 |
| 20260508125504 | 51 | 280 | 1.0 | 2.0 | 0.00 | 0.00 | 0.00 | 91 | 1015.9 |
| 20260508125306 | 50 | 280 | 1.0 | 2.0 | 0.00 | 0.00 | 0.00 | 92 | 1015.9 |
| 20260508125204 | 50 | 280 | 1.0 | 2.0 | 0.00 | 0.00 | 0.00 | 93 | 1015.9 |
| 20260508125117 | 50 | 280 | 1.0 | 2.0 | 0.00 | 0.00 | 0.00 | 93 | 1015.9 |
| 20260508125103 | 50 | 280 | 1.0 | 2.0 | 0.00 | 0.00 | 0.00 | 93 | 1015.8 |
| 20260508125004 | 50 | 280 | 1.0 | 2.0 | 0.00 | 0.00 | 0.00 | 93 | 1015.8 |
| 20260508124803 | 49 | 280 | 1.0 | 2.0 | 0.00 | 0.00 | 0.00 | 94 | 1015.8 |
| 20260508124703 | 49 | 280 | 1.0 | 2.0 | 0.00 | 0.00 | 0.00 | 94 | 1015.8 |
| 20260508124603 | 49 | 280 | 1.0 | 2.0 | 0.00 | 0.00 | 0.00 | 94 | 1015.8 |
| 20260508124503 | 49 | 280 | 1.0 | 2.0 | 0.00 | 0.00 | 0.00 | 94 | 1015.8 |
| 20260508124403 | 49 | 280 | 1.0 | 2.0 | 0.00 | 0.00 | 0.00 | 94 | 1015.9 |
| 20260508124303 | 48 | 280 | 1.0 | 2.0 | 0.00 | 0.00 | 0.00 | 95 | 1015.9 |
| 20260508124203 | 48 | 280 | 1.0 | 2.0 | 0.00 | 0.00 | 0.00 | 95 | 1015.8 |
| 20260508124003 | 48 | 280 | 1.0 | 2.0 | 0.00 | 0.00 | 0.00 | 95 | 1015.8 |
| 20260508123903 | 48 | 280 | 1.0 | 2.0 | 0.00 | 0.00 | 0.00 | 95 | 1015.8 |
| 20260508123803 | 47 | 280 | 1.0 | 2.0 | 0.00 | 0.00 | 0.00 | 95 | 1015.8 |
| 20260508123703 | 47 | 280 | 1.0 | 2.0 | 0.00 | 0.00 | 0.00 | 95 | 1015.8 |
| 20260508123603 | 47 | 280 | 1.0 | 2.0 | 0.00 | 0.00 | 0.00 | 95 | 1015.7 |
| 20260508123503 | 47 | 280 | 1.0 | 2.0 | 0.00 | 0.00 | 0.00 | 95 | 1015.7 |
| 20260508123403 | 47 | 280 | 1.0 | 2.0 | 0.00 | 0.00 | 0.00 | 95 | 1015.7 |
| 20260508123204 | 46 | 280 | 1.0 | 2.0 | 0.00 | 0.00 | 0.00 | 95 | 1015.8 |
| 20260508123103 | 46 | 280 | 1.0 | 3.0 | 0.00 | 0.00 | 0.00 | 95 | 1015.8 |
| 20260508123004 | 46 | 280 | 1.0 | 3.0 | 0.00 | 0.00 | 0.00 | 95 | 1015.8 |
| 20260508122903 | 46 | 280 | 1.0 | 3.0 | 0.00 | 0.00 | 0.00 | 95 | 1015.8 |
| 20260508122803 | 46 | 280 | 1.0 | 3.0 | 0.00 | 0.00 | 0.00 | 95 | 1015.8 |
| 20260508122703 | 46 | 280 | 1.0 | 3.0 | 0.00 | 0.00 | 0.00 | 95 | 1015.8 |
| 20260508122603 | 45 | 280 | 1.0 | 3.0 | 0.00 | 0.00 | 0.00 | 95 | 1015.7 |
| 20260508122504 | 45 | 280 | 1.0 | 3.0 | 0.00 | 0.00 | 0.00 | 95 | 1015.8 |
| 20260508122419 | 45 | 280 | 1.0 | 3.0 | 0.00 | 0.00 | 0.00 | 95 | 1015.8 |
| 20260508122306 | 45 | 280 | 1.0 | 3.0 | 0.00 | 0.00 | 0.00 | 95 | 1015.7 |
| 20260508122103 | 44 | 280 | 1.0 | 2.0 | 0.00 | 0.00 | 0.00 | 95 | 1015.7 |
| 20260508122004 | 44 | 280 | 1.0 | 2.0 | 0.00 | 0.00 | 0.00 | 95 | 1015.7 |
| 20260508121916 | 44 | 280 | 1.0 | 2.0 | 0.00 | 0.00 | 0.00 | 95 | 1015.7 |
| 20260508121803 | 44 | 280 | 1.0 | 2.0 | 0.00 | 0.00 | 0.00 | 95 | 1015.7 |
| 20260508121718 | 44 | 280 | 1.0 | 2.0 | 0.00 | 0.00 | 0.00 | 95 | 1015.7 |
| 20260508121603 | 44 | 280 | 0.0 | 2.0 | 0.00 | 0.00 | 0.00 | 95 | 1015.7 |
| 20260508121403 | 44 | 280 | 0.0 | 2.0 | 0.00 | 0.00 | 0.00 | 95 | 1015.7 |
| 20260508121303 | 43 | 280 | 0.0 | 2.0 | 0.00 | 0.00 | 0.00 | 95 | 1015.7 |
| 20260508121203 | 43 | 280 | 0.0 | 2.0 | 0.00 | 0.00 | 0.00 | 95 | 1015.7 |
| 20260508121119 | 43 | 0 | 0.0 | 0.0 | 0.00 | 0.00 | 0.00 | 95 | 1015.7 |
| 20260508121004 | 43 | 0 | 0.0 | 0.0 | 0.00 | 0.00 | 0.00 | 95 | 1015.7 |
| 20260508120803 | 43 | 0 | 0.0 | 0.0 | 0.00 | 0.00 | 0.00 | 94 | 1015.7 |
| 20260508120704 | 42 | 0 | 0.0 | 0.0 | 0.00 | 0.00 | 0.00 | 94 | 1015.7 |
| 20260508120603 | 42 | 0 | 0.0 | 0.0 | 0.00 | 0.00 | 0.00 | 94 | 1015.7 |
| 20260508120504 | 42 | 0 | 0.0 | 0.0 | 0.00 | 0.00 | 0.00 | 94 | 1015.7 |
| 20260508120403 | 42 | 0 | 0.0 | 0.0 | 0.00 | 0.00 | 0.00 | 95 | 1015.7 |
| 20260508120304 | 42 | 0 | 0.0 | 0.0 | 0.00 | 0.00 | 0.00 | 94 | 1015.7 |
| 20260508120204 | 42 | 0 | 0.0 | 0.0 | 0.00 | 0.00 | 0.00 | 94 | 1015.7 |
| 20260508120104 | 42 | 0 | 0.0 | 0.0 | 0.00 | 0.00 | 0.00 | 94 | 1015.7 |
| 20260508120003 | 41 | 0 | 0.0 | 0.0 | 0.00 | 0.00 | 0.00 | 94 | 1015.6 |
| 20260508115903 | 41 | 0 | 0.0 | 0.0 | 0.00 | 0.00 | 0.00 | 94 | 1015.6 |
| 20260508115803 | 41 | 0 | 0.0 | 0.0 | 0.00 | 0.00 | 0.00 | 94 | 1015.7 |
| 20260508115703 | 41 | 0 | 0.0 | 0.0 | 0.00 | 0.00 | 0.00 | 94 | 1015.7 |
| 20260508115504 | 40 | 0 | 0.0 | 0.0 | 0.00 | 0.00 | 0.00 | 94 | 1015.7 |
| 20260508115403 | 40 | 0 | 0.0 | 0.0 | 0.00 | 0.00 | 0.00 | 94 | 1015.7 |
| 20260508115203 | 40 | 0 | 0.0 | 0.0 | 0.00 | 0.00 | 0.00 | 94 | 1015.6 |
| 20260508115104 | 39 | 0 | 0.0 | 0.0 | 0.00 | 0.00 | 0.00 | 93 | 1015.6 |
| 20260508115003 | 39 | 0 | 0.0 | 0.0 | 0.00 | 0.00 | 0.00 | 93 | 1015.6 |
| 20260508114904 | 39 | 0 | 0.0 | 0.0 | 0.00 | 0.00 | 0.00 | 93 | 1015.6 |
| 20260508114803 | 39 | 0 | 0.0 | 0.0 | 0.00 | 0.00 | 0.00 | 93 | 1015.6 |
| 20260508114704 | 39 | 0 | 0.0 | 0.0 | 0.00 | 0.00 | 0.00 | 93 | 1015.5 |
| 20260508114603 | 39 | 0 | 0.0 | 0.0 | 0.00 | 0.00 | 0.00 | 93 | 1015.5 |
| 20260508114503 | 39 | 0 | 0.0 | 0.0 | 0.00 | 0.00 | 0.00 | 93 | 1015.6 |
| 20260508114404 | 39 | 0 | 0.0 | 0.0 | 0.00 | 0.00 | 0.00 | 93 | 1015.6 |
| 20260508114304 | 39 | 0 | 0.0 | 0.0 | 0.00 | 0.00 | 0.00 | 93 | 1015.6 |
| 20260508114003 | 39 | 0 | 0.0 | 0.0 | 0.00 | 0.00 | 0.00 | 93 | 1015.5 |
| 20260508113903 | 39 | 0 | 0.0 | 0.0 | 0.00 | 0.00 | 0.00 | 93 | 1015.5 |
| 20260508113804 | 39 | 0 | 0.0 | 0.0 | 0.00 | 0.00 | 0.00 | 93 | 1015.5 |
| 20260508113604 | 39 | 0 | 0.0 | 0.0 | 0.00 | 0.00 | 0.00 | 93 | 1015.5 |
| 20260508113503 | 39 | 0 | 0.0 | 0.0 | 0.00 | 0.00 | 0.00 | 93 | 1015.5 |
| 20260508113404 | 39 | 0 | 0.0 | 0.0 | 0.00 | 0.00 | 0.00 | 93 | 1015.5 |
| 20260508113303 | 39 | 0 | 0.0 | 0.0 | 0.00 | 0.00 | 0.00 | 93 | 1015.5 |
| 20260508113203 | 39 | 0 | 0.0 | 0.0 | 0.00 | 0.00 | 0.00 | 93 | 1015.4 |
| 20260508113105 | 39 | 0 | 0.0 | 0.0 | 0.00 | 0.00 | 0.00 | 93 | 1015.5 |
| 20260508113004 | 39 | 0 | 0.0 | 0.0 | 0.00 | 0.00 | 0.00 | 93 | 1015.5 |
| 20260508112904 | 39 | 0 | 0.0 | 0.0 | 0.00 | 0.00 | 0.00 | 93 | 1015.4 |
| 20260508112603 | 39 | 0 | 0.0 | 0.0 | 0.00 | 0.00 | 0.00 | 93 | 1015.4 |
| 20260508112503 | 39 | 0 | 0.0 | 0.0 | 0.00 | 0.00 | 0.00 | 93 | 1015.4 |
| 20260508112403 | 39 | 0 | 0.0 | 0.0 | 0.00 | 0.00 | 0.00 | 93 | 1015.3 |
| 20260508112317 | 39 | 0 | 0.0 | 0.0 | 0.00 | 0.00 | 0.00 | 93 | 1015.3 |
| 20260508112204 | 39 | 0 | 0.0 | 0.0 | 0.00 | 0.00 | 0.00 | 93 | 1015.3 |
| 20260508112004 | 39 | 0 | 0.0 | 0.0 | 0.00 | 0.00 | 0.00 | 93 | 1015.3 |
| 20260508111903 | 39 | 0 | 0.0 | 0.0 | 0.00 | 0.00 | 0.00 | 93 | 1015.3 |
| 20260508111804 | 39 | 0 | 0.0 | 0.0 | 0.00 | 0.00 | 0.00 | 93 | 1015.2 |
| 20260508111704 | 39 | 0 | 0.0 | 0.0 | 0.00 | 0.00 | 0.00 | 93 | 1015.2 |
| 20260508111604 | 39 | 0 | 0.0 | 0.0 | 0.00 | 0.00 | 0.00 | 93 | 1015.2 |
| 20260508111503 | 39 | 0 | 0.0 | 0.0 | 0.00 | 0.00 | 0.00 | 93 | 1015.2 |
| 20260508111404 | 39 | 0 | 0.0 | 0.0 | 0.00 | 0.00 | 0.00 | 93 | 1015.2 |
| 20260508111303 | 39 | 0 | 0.0 | 0.0 | 0.00 | 0.00 | 0.00 | 93 | 1015.2 |
| 20260508111204 | 39 | 0 | 0.0 | 0.0 | 0.00 | 0.00 | 0.00 | 93 | 1015.2 |
| 20260508111103 | 39 | 0 | 0.0 | 0.0 | 0.00 | 0.00 | 0.00 | 93 | 1015.1 |
| 20260508111003 | 39 | 0 | 0.0 | 0.0 | 0.00 | 0.00 | 0.00 | 93 | 1015.1 |
| 20260508110903 | 39 | 0 | 0.0 | 0.0 | 0.00 | 0.00 | 0.00 | 93 | 1015.1 |
| 20260508110803 | 39 | 0 | 0.0 | 0.0 | 0.00 | 0.00 | 0.00 | 93 | 1015.0 |
| 20260508110703 | 39 | 0 | 0.0 | 0.0 | 0.00 | 0.00 | 0.00 | 93 | 1015.0 |
| 20260508110603 | 39 | 0 | 0.0 | 0.0 | 0.00 | 0.00 | 0.00 | 93 | 1015.0 |
| 20260508110516 | 39 | 0 | 0.0 | 0.0 | 0.00 | 0.00 | 0.00 | 93 | 1015.0 |
| 20260508110404 | 39 | 0 | 0.0 | 0.0 | 0.00 | 0.00 | 0.00 | 93 | 1015.0 |
| 20260508110204 | 39 | 0 | 0.0 | 0.0 | 0.00 | 0.00 | 0.00 | 93 | 1015.0 |
| 20260508110104 | 39 | 0 | 0.0 | 0.0 | 0.00 | 0.00 | 0.00 | 93 | 1015.0 |
| 20260508110005 | 39 | 0 | 0.0 | 0.0 | 0.00 | 0.00 | 0.00 | 93 | 1015.0 |
| 20260508105803 | 39 | 0 | 0.0 | 0.0 | 0.00 | 0.00 | 0.00 | 93 | 1015.0 |
| 20260508105703 | 39 | 0 | 0.0 | 0.0 | 0.00 | 0.00 | 0.00 | 93 | 1015.0 |
| 20260508105603 | 39 | 0 | 0.0 | 0.0 | 0.00 | 0.00 | 0.00 | 93 | 1015.0 |
| 20260508105504 | 39 | 0 | 0.0 | 0.0 | 0.00 | 0.00 | 0.00 | 93 | 1015.0 |
| 20260508105403 | 39 | 0 | 0.0 | 0.0 | 0.00 | 0.00 | 0.00 | 93 | 1015.0 |
| 20260508105306 | 39 | 0 | 0.0 | 0.0 | 0.00 | 0.00 | 0.00 | 92 | 1015.0 |
| 20260508105203 | 39 | 0 | 0.0 | 0.0 | 0.00 | 0.00 | 0.00 | 92 | 1015.0 |
| 20260508105103 | 39 | 0 | 0.0 | 0.0 | 0.00 | 0.00 | 0.00 | 92 | 1015.0 |
| 20260508104903 | 39 | 0 | 0.0 | 0.0 | 0.00 | 0.00 | 0.00 | 92 | 1015.0 |
| 20260508104803 | 39 | 0 | 0.0 | 0.0 | 0.00 | 0.00 | 0.00 | 92 | 1015.0 |
| 20260508104704 | 39 | 0 | 0.0 | 0.0 | 0.00 | 0.00 | 0.00 | 92 | 1015.0 |
| 20260508104504 | 39 | 0 | 0.0 | 0.0 | 0.00 | 0.00 | 0.00 | 92 | 1015.0 |
| 20260508104403 | 39 | 0 | 0.0 | 0.0 | 0.00 | 0.00 | 0.00 | 92 | 1015.0 |
| 20260508104304 | 39 | 0 | 0.0 | 0.0 | 0.00 | 0.00 | 0.00 | 92 | 1014.9 |
| 20260508104203 | 39 | 0 | 0.0 | 0.0 | 0.00 | 0.00 | 0.00 | 92 | 1014.9 |
| 20260508104104 | 39 | 0 | 0.0 | 0.0 | 0.00 | 0.00 | 0.00 | 92 | 1014.9 |
| 20260508104003 | 39 | 0 | 0.0 | 0.0 | 0.00 | 0.00 | 0.00 | 92 | 1014.9 |
| 20260508103903 | 39 | 0 | 0.0 | 0.0 | 0.00 | 0.00 | 0.00 | 92 | 1014.9 |
| 20260508103818 | 39 | 0 | 0.0 | 0.0 | 0.00 | 0.00 | 0.00 | 92 | 1014.9 |
| 20260508103703 | 39 | 0 | 0.0 | 0.0 | 0.00 | 0.00 | 0.00 | 92 | 1014.9 |
| 20260508103404 | 39 | 0 | 0.0 | 0.0 | 0.00 | 0.00 | 0.00 | 92 | 1014.9 |
| 20260508103304 | 39 | 0 | 0.0 | 0.0 | 0.00 | 0.00 | 0.00 | 92 | 1014.8 |
| 20260508103203 | 39 | 0 | 0.0 | 0.0 | 0.00 | 0.00 | 0.00 | 92 | 1014.8 |
| 20260508103103 | 39 | 0 | 0.0 | 0.0 | 0.00 | 0.00 | 0.00 | 92 | 1014.8 |
| 20260508102904 | 39 | 0 | 0.0 | 0.0 | 0.00 | 0.00 | 0.00 | 92 | 1014.9 |
| 20260508102804 | 39 | 0 | 0.0 | 0.0 | 0.00 | 0.00 | 0.00 | 92 | 1014.9 |
| 20260508102703 | 39 | 0 | 0.0 | 0.0 | 0.00 | 0.00 | 0.00 | 92 | 1014.9 |
| 20260508102604 | 39 | 0 | 0.0 | 0.0 | 0.00 | 0.00 | 0.00 | 92 | 1014.9 |
| 20260508102306 | 39 | 0 | 0.0 | 0.0 | 0.00 | 0.00 | 0.00 | 92 | 1014.8 |
| 20260508102203 | 39 | 0 | 0.0 | 0.0 | 0.00 | 0.00 | 0.00 | 92 | 1014.8 |
| 20260508102103 | 39 | 0 | 0.0 | 0.0 | 0.00 | 0.00 | 0.00 | 92 | 1014.8 |
| 20260508102003 | 39 | 0 | 0.0 | 0.0 | 0.00 | 0.00 | 0.00 | 92 | 1014.8 |
| 20260508101918 | 39 | 0 | 0.0 | 0.0 | 0.00 | 0.00 | 0.00 | 92 | 1014.8 |
| 20260508101903 | 39 | 0 | 0.0 | 0.0 | 0.00 | 0.00 | 0.00 | 92 | 1014.7 |
| 20260508101804 | 39 | 0 | 0.0 | 0.0 | 0.00 | 0.00 | 0.00 | 92 | 1014.7 |
| 20260508101604 | 39 | 0 | 0.0 | 0.0 | 0.00 | 0.00 | 0.00 | 92 | 1014.7 |
| 20260508101503 | 39 | 0 | 0.0 | 0.0 | 0.00 | 0.00 | 0.00 | 92 | 1014.7 |
| 20260508101403 | 39 | 0 | 0.0 | 0.0 | 0.00 | 0.00 | 0.00 | 92 | 1014.7 |
| 20260508101303 | 39 | 0 | 0.0 | 0.0 | 0.00 | 0.00 | 0.00 | 92 | 1014.7 |
| 20260508101204 | 39 | 0 | 0.0 | 0.0 | 0.00 | 0.00 | 0.00 | 92 | 1014.7 |
| 20260508101103 | 39 | 0 | 0.0 | 0.0 | 0.00 | 0.00 | 0.00 | 92 | 1014.7 |
| 20260508101017 | 39 | 0 | 0.0 | 0.0 | 0.00 | 0.00 | 0.00 | 92 | 1014.6 |
| 20260508100903 | 39 | 0 | 0.0 | 0.0 | 0.00 | 0.00 | 0.00 | 92 | 1014.6 |
| 20260508100703 | 39 | 0 | 0.0 | 0.0 | 0.00 | 0.00 | 0.00 | 92 | 1014.6 |
| 20260508100603 | 39 | 0 | 0.0 | 0.0 | 0.00 | 0.00 | 0.00 | 92 | 1014.6 |
| 20260508100504 | 39 | 0 | 0.0 | 0.0 | 0.00 | 0.00 | 0.00 | 92 | 1014.6 |
| 20260508100404 | 39 | 0 | 0.0 | 0.0 | 0.00 | 0.00 | 0.00 | 92 | 1014.6 |
| 20260508100303 | 39 | 0 | 0.0 | 0.0 | 0.00 | 0.00 | 0.00 | 92 | 1014.6 |
| 20260508100203 | 39 | 0 | 0.0 | 0.0 | 0.00 | 0.00 | 0.00 | 92 | 1014.5 |
| 20260508100103 | 39 | 0 | 0.0 | 0.0 | 0.00 | 0.00 | 0.00 | 92 | 1014.5 |
| 20260508100003 | 39 | 0 | 0.0 | 0.0 | 0.00 | 0.00 | 0.00 | 92 | 1014.5 |
| 20260508095904 | 39 | 0 | 0.0 | 0.0 | 0.00 | 0.00 | 0.00 | 92 | 1014.4 |
| 20260508095818 | 39 | 0 | 0.0 | 0.0 | 0.00 | 0.00 | 0.00 | 92 | 1014.4 |
| 20260508095703 | 39 | 0 | 0.0 | 0.0 | 0.00 | 0.00 | 0.00 | 92 | 1014.4 |
| 20260508095619 | 39 | 0 | 0.0 | 0.0 | 0.00 | 0.00 | 0.00 | 92 | 1014.4 |
| 20260508095503 | 39 | 0 | 0.0 | 0.0 | 0.00 | 0.00 | 0.00 | 92 | 1014.4 |
| 20260508095306 | 39 | 0 | 0.0 | 0.0 | 0.00 | 0.00 | 0.00 | 92 | 1014.5 |
| 20260508095203 | 39 | 0 | 0.0 | 0.0 | 0.00 | 0.00 | 0.00 | 92 | 1014.5 |
| 20260508095103 | 39 | 0 | 0.0 | 0.0 | 0.00 | 0.00 | 0.00 | 92 | 1014.5 |
| 20260508094903 | 39 | 0 | 0.0 | 0.0 | 0.00 | 0.00 | 0.00 | 92 | 1014.5 |
| 20260508094804 | 40 | 0 | 0.0 | 0.0 | 0.00 | 0.00 | 0.00 | 92 | 1014.5 |
| 20260508094717 | 40 | 0 | 0.0 | 0.0 | 0.00 | 0.00 | 0.00 | 92 | 1014.5 |
| 20260508094604 | 40 | 0 | 0.0 | 0.0 | 0.00 | 0.00 | 0.00 | 92 | 1014.4 |
| 20260508094303 | 40 | 0 | 0.0 | 0.0 | 0.00 | 0.00 | 0.00 | 92 | 1014.5 |
| 20260508094203 | 40 | 0 | 0.0 | 0.0 | 0.00 | 0.00 | 0.00 | 92 | 1014.5 |
| 20260508094104 | 40 | 0 | 0.0 | 0.0 | 0.00 | 0.00 | 0.00 | 92 | 1014.5 |
| 20260508094004 | 40 | 0 | 0.0 | 0.0 | 0.00 | 0.00 | 0.00 | 92 | 1014.5 |
| 20260508093904 | 40 | 0 | 0.0 | 0.0 | 0.00 | 0.00 | 0.00 | 92 | 1014.5 |
| 20260508093804 | 40 | 0 | 0.0 | 0.0 | 0.00 | 0.00 | 0.00 | 92 | 1014.5 |
| 20260508093703 | 40 | 0 | 0.0 | 0.0 | 0.00 | 0.00 | 0.00 | 92 | 1014.5 |
| 20260508093603 | 40 | 0 | 0.0 | 0.0 | 0.00 | 0.00 | 0.00 | 92 | 1014.5 |
| 20260508093404 | 40 | 0 | 0.0 | 0.0 | 0.00 | 0.00 | 0.00 | 92 | 1014.5 |
| 20260508093303 | 40 | 0 | 0.0 | 0.0 | 0.00 | 0.00 | 0.00 | 92 | 1014.5 |
| 20260508093217 | 40 | 0 | 0.0 | 0.0 | 0.00 | 0.00 | 0.00 | 92 | 1014.5 |
| 20260508093103 | 40 | 0 | 0.0 | 0.0 | 0.00 | 0.00 | 0.00 | 92 | 1014.5 |
| 20260508092904 | 40 | 0 | 0.0 | 0.0 | 0.00 | 0.00 | 0.00 | 92 | 1014.5 |
| 20260508092803 | 40 | 0 | 0.0 | 0.0 | 0.00 | 0.00 | 0.00 | 92 | 1014.5 |
| 20260508092703 | 40 | 0 | 0.0 | 0.0 | 0.00 | 0.00 | 0.00 | 92 | 1014.5 |
| 20260508092604 | 40 | 0 | 0.0 | 0.0 | 0.00 | 0.00 | 0.00 | 92 | 1014.5 |
| 20260508092503 | 40 | 0 | 0.0 | 0.0 | 0.00 | 0.00 | 0.00 | 92 | 1014.4 |
| 20260508092404 | 40 | 0 | 0.0 | 0.0 | 0.00 | 0.00 | 0.00 | 92 | 1014.4 |
| 20260508092312 | 40 | 0 | 0.0 | 0.0 | 0.00 | 0.00 | 0.00 | 92 | 1014.4 |
| 20260508092203 | 40 | 0 | 0.0 | 0.0 | 0.00 | 0.00 | 0.00 | 92 | 1014.4 |
| 20260508092104 | 40 | 0 | 0.0 | 0.0 | 0.00 | 0.00 | 0.00 | 92 | 1014.5 |
| 20260508092004 | 40 | 0 | 0.0 | 0.0 | 0.00 | 0.00 | 0.00 | 92 | 1014.5 |
| 20260508091904 | 40 | 0 | 0.0 | 0.0 | 0.00 | 0.00 | 0.00 | 92 | 1014.5 |
| 20260508091803 | 40 | 0 | 0.0 | 0.0 | 0.00 | 0.00 | 0.00 | 92 | 1014.6 |
| 20260508091704 | 40 | 0 | 0.0 | 0.0 | 0.00 | 0.00 | 0.00 | 92 | 1014.5 |
| 20260508091603 | 40 | 0 | 0.0 | 0.0 | 0.00 | 0.00 | 0.00 | 92 | 1014.5 |
| 20260508091503 | 40 | 0 | 0.0 | 0.0 | 0.00 | 0.00 | 0.00 | 92 | 1014.5 |
| 20260508091403 | 40 | 0 | 0.0 | 0.0 | 0.00 | 0.00 | 0.00 | 92 | 1014.5 |
| 20260508091304 | 40 | 0 | 0.0 | 0.0 | 0.00 | 0.00 | 0.00 | 92 | 1014.4 |
| 20260508091203 | 40 | 0 | 0.0 | 0.0 | 0.00 | 0.00 | 0.00 | 92 | 1014.4 |
| 20260508091104 | 40 | 0 | 0.0 | 0.0 | 0.00 | 0.00 | 0.00 | 92 | 1014.4 |
| 20260508091003 | 40 | 0 | 0.0 | 0.0 | 0.00 | 0.00 | 0.00 | 92 | 1014.3 |
| 20260508090903 | 40 | 0 | 0.0 | 0.0 | 0.00 | 0.00 | 0.00 | 92 | 1014.3 |
| 20260508090804 | 40 | 0 | 0.0 | 0.0 | 0.00 | 0.00 | 0.00 | 92 | 1014.3 |
| 20260508090703 | 40 | 0 | 0.0 | 0.0 | 0.00 | 0.00 | 0.00 | 92 | 1014.3 |
| 20260508090604 | 40 | 0 | 0.0 | 0.0 | 0.00 | 0.00 | 0.00 | 92 | 1014.3 |
| 20260508090503 | 40 | 0 | 0.0 | 0.0 | 0.00 | 0.00 | 0.00 | 92 | 1014.3 |
| 20260508090403 | 40 | 0 | 0.0 | 0.0 | 0.00 | 0.00 | 0.00 | 92 | 1014.3 |
| 20260508090303 | 40 | 0 | 0.0 | 0.0 | 0.00 | 0.00 | 0.00 | 92 | 1014.2 |
| 20260508090203 | 40 | 0 | 0.0 | 0.0 | 0.00 | 0.00 | 0.00 | 92 | 1014.3 |
| 20260508090103 | 40 | 0 | 0.0 | 0.0 | 0.00 | 0.00 | 0.00 | 92 | 1014.3 |
| 20260508085903 | 40 | 0 | 0.0 | 0.0 | 0.00 | 0.00 | 0.00 | 92 | 1014.2 |
| 20260508085803 | 40 | 0 | 0.0 | 0.0 | 0.00 | 0.00 | 0.00 | 92 | 1014.2 |
| 20260508085704 | 41 | 0 | 0.0 | 0.0 | 0.00 | 0.00 | 0.00 | 92 | 1014.3 |
| 20260508085603 | 40 | 0 | 0.0 | 0.0 | 0.00 | 0.00 | 0.00 | 92 | 1014.3 |
| 20260508085503 | 41 | 0 | 0.0 | 0.0 | 0.00 | 0.00 | 0.00 | 92 | 1014.2 |
| 20260508085403 | 41 | 0 | 0.0 | 0.0 | 0.00 | 0.00 | 0.00 | 92 | 1014.2 |
| 20260508085306 | 41 | 0 | 0.0 | 0.0 | 0.00 | 0.00 | 0.00 | 92 | 1014.2 |
| 20260508085204 | 41 | 0 | 0.0 | 0.0 | 0.00 | 0.00 | 0.00 | 92 | 1014.3 |
| 20260508085103 | 41 | 0 | 0.0 | 0.0 | 0.00 | 0.00 | 0.00 | 92 | 1014.3 |
| 20260508085003 | 41 | 0 | 0.0 | 0.0 | 0.00 | 0.00 | 0.00 | 92 | 1014.3 |
| 20260508084903 | 41 | 0 | 0.0 | 0.0 | 0.00 | 0.00 | 0.00 | 92 | 1014.3 |
| 20260508084703 | 41 | 0 | 0.0 | 0.0 | 0.00 | 0.00 | 0.00 | 92 | 1014.3 |
| 20260508084604 | 41 | 0 | 0.0 | 0.0 | 0.00 | 0.00 | 0.00 | 92 | 1014.3 |
| 20260508084503 | 41 | 0 | 0.0 | 0.0 | 0.00 | 0.00 | 0.00 | 92 | 1014.3 |
| 20260508084303 | 41 | 0 | 0.0 | 0.0 | 0.00 | 0.00 | 0.00 | 92 | 1014.3 |
| 20260508084203 | 41 | 0 | 0.0 | 0.0 | 0.00 | 0.00 | 0.00 | 92 | 1014.3 |
| 20260508084103 | 41 | 0 | 0.0 | 0.0 | 0.00 | 0.00 | 0.00 | 92 | 1014.3 |
| 20260508084004 | 41 | 0 | 0.0 | 0.0 | 0.00 | 0.00 | 0.00 | 92 | 1014.3 |
| 20260508083904 | 41 | 0 | 0.0 | 0.0 | 0.00 | 0.00 | 0.00 | 92 | 1014.3 |
| 20260508083803 | 41 | 0 | 0.0 | 0.0 | 0.00 | 0.00 | 0.00 | 92 | 1014.3 |
| 20260508083703 | 41 | 0 | 0.0 | 0.0 | 0.00 | 0.00 | 0.00 | 92 | 1014.2 |
| 20260508083603 | 41 | 0 | 0.0 | 0.0 | 0.00 | 0.00 | 0.00 | 92 | 1014.2 |
| 20260508083503 | 41 | 0 | 0.0 | 0.0 | 0.00 | 0.00 | 0.00 | 92 | 1014.2 |
| 20260508083403 | 41 | 0 | 0.0 | 0.0 | 0.00 | 0.00 | 0.00 | 92 | 1014.2 |
| 20260508083303 | 41 | 0 | 0.0 | 0.0 | 0.00 | 0.00 | 0.00 | 92 | 1014.2 |
| 20260508083103 | 41 | 0 | 0.0 | 0.0 | 0.00 | 0.00 | 0.00 | 92 | 1014.3 |
| 20260508083003 | 41 | 0 | 0.0 | 0.0 | 0.00 | 0.00 | 0.00 | 92 | 1014.3 |
| 20260508082803 | 41 | 0 | 0.0 | 0.0 | 0.00 | 0.00 | 0.00 | 92 | 1014.4 |
| 20260508082703 | 41 | 0 | 0.0 | 0.0 | 0.00 | 0.00 | 0.00 | 92 | 1014.4 |
| 20260508082603 | 41 | 0 | 0.0 | 0.0 | 0.00 | 0.00 | 0.00 | 92 | 1014.3 |
| 20260508082306 | 41 | 0 | 0.0 | 0.0 | 0.00 | 0.00 | 0.00 | 92 | 1014.4 |
| 20260508082204 | 41 | 0 | 0.0 | 0.0 | 0.00 | 0.00 | 0.00 | 92 | 1014.4 |
| 20260508082104 | 41 | 0 | 0.0 | 0.0 | 0.00 | 0.00 | 0.00 | 92 | 1014.4 |
| 20260508082003 | 41 | 0 | 0.0 | 0.0 | 0.00 | 0.00 | 0.00 | 92 | 1014.4 |
| 20260508081803 | 41 | 0 | 0.0 | 0.0 | 0.00 | 0.00 | 0.00 | 92 | 1014.4 |
| 20260508081703 | 41 | 0 | 0.0 | 0.0 | 0.00 | 0.00 | 0.00 | 92 | 1014.4 |
| 20260508081603 | 41 | 0 | 0.0 | 0.0 | 0.00 | 0.00 | 0.00 | 92 | 1014.4 |
| 20260508081504 | 41 | 0 | 0.0 | 0.0 | 0.00 | 0.00 | 0.00 | 92 | 1014.4 |
| 20260508081404 | 41 | 0 | 0.0 | 0.0 | 0.00 | 0.00 | 0.00 | 92 | 1014.3 |
| 20260508081303 | 41 | 0 | 0.0 | 0.0 | 0.00 | 0.00 | 0.00 | 92 | 1014.3 |
| 20260508081203 | 41 | 0 | 0.0 | 0.0 | 0.00 | 0.00 | 0.00 | 92 | 1014.3 |
| 20260508081004 | 42 | 0 | 0.0 | 0.0 | 0.00 | 0.00 | 0.00 | 92 | 1014.4 |
| 20260508080903 | 42 | 0 | 0.0 | 0.0 | 0.00 | 0.00 | 0.00 | 92 | 1014.4 |
| 20260508080803 | 42 | 0 | 0.0 | 0.0 | 0.00 | 0.00 | 0.00 | 92 | 1014.5 |
| 20260508080718 | 42 | 0 | 0.0 | 0.0 | 0.00 | 0.00 | 0.00 | 92 | 1014.5 |
| 20260508080604 | 42 | 0 | 0.0 | 0.0 | 0.00 | 0.00 | 0.00 | 92 | 1014.5 |
| 20260508080517 | 42 | 0 | 0.0 | 0.0 | 0.00 | 0.00 | 0.00 | 91 | 1014.5 |
| 20260508080403 | 42 | 0 | 0.0 | 0.0 | 0.00 | 0.00 | 0.00 | 91 | 1014.5 |
| 20260508080219 | 42 | 0 | 0.0 | 0.0 | 0.00 | 0.00 | 0.00 | 91 | 1014.5 |
| 20260508080018 | 42 | 0 | 0.0 | 0.0 | 0.00 | 0.00 | 0.00 | 91 | 1014.4 |
| 20260508075904 | 42 | 0 | 0.0 | 0.0 | 0.00 | 0.00 | 0.00 | 91 | 1014.5 |
| 20260508075703 | 42 | 0 | 0.0 | 0.0 | 0.00 | 0.00 | 0.00 | 92 | 1014.5 |
| 20260508075604 | 42 | 0 | 0.0 | 0.0 | 0.00 | 0.00 | 0.00 | 92 | 1014.5 |
| 20260508075503 | 42 | 0 | 0.0 | 0.0 | 0.00 | 0.00 | 0.00 | 92 | 1014.5 |
| 20260508075403 | 42 | 0 | 0.0 | 0.0 | 0.00 | 0.00 | 0.00 | 92 | 1014.5 |
| 20260508075308 | 42 | 0 | 0.0 | 0.0 | 0.00 | 0.00 | 0.00 | 92 | 1014.5 |
| 20260508075204 | 42 | 0 | 0.0 | 0.0 | 0.00 | 0.00 | 0.00 | 92 | 1014.4 |
| 20260508075103 | 42 | 0 | 0.0 | 0.0 | 0.00 | 0.00 | 0.00 | 92 | 1014.4 |
| 20260508075003 | 42 | 0 | 0.0 | 0.0 | 0.00 | 0.00 | 0.00 | 92 | 1014.4 |
| 20260508074904 | 42 | 0 | 0.0 | 0.0 | 0.00 | 0.00 | 0.00 | 92 | 1014.4 |
| 20260508074703 | 42 | 0 | 0.0 | 0.0 | 0.00 | 0.00 | 0.00 | 92 | 1014.4 |
| 20260508074603 | 42 | 0 | 0.0 | 0.0 | 0.00 | 0.00 | 0.00 | 92 | 1014.4 |
| 20260508074504 | 42 | 0 | 0.0 | 0.0 | 0.00 | 0.00 | 0.00 | 92 | 1014.4 |
| 20260508074403 | 42 | 0 | 0.0 | 0.0 | 0.00 | 0.00 | 0.00 | 92 | 1014.4 |
| 20260508074303 | 42 | 0 | 0.0 | 0.0 | 0.00 | 0.00 | 0.00 | 91 | 1014.4 |
| 20260508074204 | 42 | 0 | 0.0 | 0.0 | 0.00 | 0.00 | 0.00 | 92 | 1014.5 |
| 20260508074103 | 42 | 0 | 0.0 | 0.0 | 0.00 | 0.00 | 0.00 | 91 | 1014.5 |
| 20260508074003 | 42 | 0 | 0.0 | 0.0 | 0.00 | 0.00 | 0.00 | 91 | 1014.5 |
| 20260508073904 | 42 | 0 | 0.0 | 0.0 | 0.00 | 0.00 | 0.00 | 91 | 1014.5 |
| 20260508073804 | 42 | 0 | 0.0 | 0.0 | 0.00 | 0.00 | 0.00 | 91 | 1014.6 |
| 20260508073704 | 42 | 0 | 0.0 | 0.0 | 0.00 | 0.00 | 0.00 | 91 | 1014.5 |
| 20260508073604 | 42 | 0 | 0.0 | 0.0 | 0.00 | 0.00 | 0.00 | 91 | 1014.5 |
| 20260508073503 | 42 | 0 | 0.0 | 0.0 | 0.00 | 0.00 | 0.00 | 91 | 1014.5 |
| 20260508073404 | 42 | 0 | 0.0 | 0.0 | 0.00 | 0.00 | 0.00 | 91 | 1014.5 |
| 20260508073304 | 42 | 0 | 0.0 | 0.0 | 0.00 | 0.00 | 0.00 | 91 | 1014.5 |
| 20260508073203 | 42 | 0 | 0.0 | 0.0 | 0.00 | 0.00 | 0.00 | 91 | 1014.6 |
| 20260508073103 | 42 | 0 | 0.0 | 0.0 | 0.00 | 0.00 | 0.00 | 91 | 1014.6 |
| 20260508073003 | 42 | 0 | 0.0 | 0.0 | 0.00 | 0.00 | 0.00 | 91 | 1014.6 |
| 20260508072903 | 42 | 0 | 0.0 | 0.0 | 0.00 | 0.00 | 0.00 | 91 | 1014.6 |
| 20260508072804 | 42 | 0 | 0.0 | 0.0 | 0.00 | 0.00 | 0.00 | 91 | 1014.6 |
| 20260508072703 | 42 | 0 | 0.0 | 0.0 | 0.00 | 0.00 | 0.00 | 91 | 1014.6 |
| 20260508072603 | 42 | 0 | 0.0 | 0.0 | 0.00 | 0.00 | 0.00 | 91 | 1014.6 |
| 20260508072503 | 42 | 0 | 0.0 | 0.0 | 0.00 | 0.00 | 0.00 | 91 | 1014.6 |
| 20260508072404 | 42 | 0 | 0.0 | 0.0 | 0.00 | 0.00 | 0.00 | 91 | 1014.6 |
| 20260508072204 | 42 | 0 | 0.0 | 0.0 | 0.00 | 0.00 | 0.00 | 91 | 1014.6 |
| 20260508072103 | 42 | 0 | 0.0 | 0.0 | 0.00 | 0.00 | 0.00 | 91 | 1014.6 |
| 20260508072003 | 42 | 0 | 0.0 | 0.0 | 0.00 | 0.00 | 0.00 | 91 | 1014.6 |
| 20260508071903 | 42 | 0 | 0.0 | 0.0 | 0.00 | 0.00 | 0.00 | 91 | 1014.6 |
| 20260508071703 | 42 | 0 | 0.0 | 0.0 | 0.00 | 0.01 | 0.00 | 91 | 1014.6 |
| 20260508071603 | 42 | 0 | 0.0 | 0.0 | 0.00 | 0.01 | 0.00 | 91 | 1014.6 |
| 20260508071403 | 42 | 0 | 0.0 | 0.0 | 0.00 | 0.01 | 0.00 | 91 | 1014.6 |
| 20260508071303 | 42 | 0 | 0.0 | 0.0 | 0.00 | 0.01 | 0.00 | 91 | 1014.6 |
| 20260508071204 | 42 | 0 | 0.0 | 0.0 | 0.00 | 0.01 | 0.00 | 91 | 1014.5 |
| 20260508071119 | 42 | 0 | 0.0 | 0.0 | 0.00 | 0.01 | 0.00 | 91 | 1014.5 |
| 20260508071103 | 42 | 0 | 0.0 | 0.0 | 0.00 | 0.01 | 0.00 | 91 | 1014.6 |
| 20260508071005 | 42 | 0 | 0.0 | 0.0 | 0.00 | 0.01 | 0.00 | 91 | 1014.6 |
| 20260508070803 | 43 | 0 | 0.0 | 0.0 | 0.00 | 0.01 | 0.00 | 91 | 1014.6 |
| 20260508070704 | 42 | 0 | 0.0 | 0.0 | 0.00 | 0.01 | 0.00 | 91 | 1014.6 |
| 20260508070603 | 43 | 0 | 0.0 | 0.0 | 0.00 | 0.01 | 0.00 | 91 | 1014.5 |
| 20260508070503 | 43 | 0 | 0.0 | 0.0 | 0.00 | 0.01 | 0.00 | 91 | 1014.5 |
| 20260508070404 | 43 | 0 | 0.0 | 0.0 | 0.00 | 0.01 | 0.00 | 91 | 1014.5 |
| 20260508070303 | 43 | 0 | 0.0 | 0.0 | 0.00 | 0.01 | 0.00 | 91 | 1014.5 |
| 20260508070203 | 43 | 0 | 0.0 | 0.0 | 0.00 | 0.01 | 0.00 | 91 | 1014.5 |
| 20260508070004 | 43 | 0 | 0.0 | 0.0 | 0.00 | 0.01 | 0.00 | 91 | 1014.4 |
| 20260508065903 | 43 | 0 | 0.0 | 0.0 | 0.00 | 0.01 | 0.00 | 91 | 1014.5 |
| 20260508065703 | 43 | 0 | 0.0 | 0.0 | 0.00 | 0.01 | 0.00 | 91 | 1014.5 |
| 20260508065604 | 43 | 0 | 0.0 | 0.0 | 0.00 | 0.01 | 0.00 | 91 | 1014.4 |
| 20260508065503 | 43 | 0 | 0.0 | 0.0 | 0.00 | 0.01 | 0.00 | 91 | 1014.4 |
| 20260508065306 | 43 | 0 | 0.0 | 0.0 | 0.00 | 0.01 | 0.00 | 91 | 1014.5 |
| 20260508065203 | 43 | 0 | 0.0 | 0.0 | 0.00 | 0.01 | 0.00 | 91 | 1014.5 |
| 20260508065103 | 43 | 0 | 0.0 | 0.0 | 0.00 | 0.01 | 0.00 | 91 | 1014.5 |
| 20260508065003 | 43 | 0 | 0.0 | 0.0 | 0.00 | 0.01 | 0.00 | 91 | 1014.5 |
| 20260508064804 | 43 | 0 | 0.0 | 0.0 | 0.00 | 0.01 | 0.00 | 91 | 1014.5 |
| 20260508064703 | 43 | 0 | 0.0 | 0.0 | 0.00 | 0.01 | 0.00 | 91 | 1014.5 |
| 20260508064604 | 43 | 0 | 0.0 | 0.0 | 0.00 | 0.01 | 0.00 | 91 | 1014.5 |
| 20260508064503 | 43 | 0 | 0.0 | 0.0 | 0.00 | 0.01 | 0.00 | 91 | 1014.5 |
| 20260508064403 | 43 | 0 | 0.0 | 0.0 | 0.00 | 0.01 | 0.00 | 91 | 1014.5 |
| 20260508064303 | 43 | 0 | 0.0 | 0.0 | 0.00 | 0.01 | 0.00 | 91 | 1014.5 |
| 20260508064204 | 43 | 0 | 0.0 | 0.0 | 0.00 | 0.01 | 0.00 | 91 | 1014.5 |
| 20260508064103 | 43 | 0 | 0.0 | 0.0 | 0.00 | 0.01 | 0.00 | 91 | 1014.5 |
| 20260508064003 | 43 | 0 | 0.0 | 0.0 | 0.00 | 0.01 | 0.00 | 91 | 1014.5 |
| 20260508063903 | 43 | 0 | 0.0 | 0.0 | 0.00 | 0.01 | 0.00 | 91 | 1014.5 |
| 20260508063817 | 43 | 0 | 0.0 | 0.0 | 0.00 | 0.01 | 0.00 | 91 | 1014.6 |
| 20260508063703 | 43 | 0 | 0.0 | 0.0 | 0.00 | 0.01 | 0.00 | 91 | 1014.6 |
| 20260508063503 | 43 | 0 | 0.0 | 0.0 | 0.00 | 0.01 | 0.00 | 91 | 1014.5 |
| 20260508063403 | 43 | 0 | 0.0 | 0.0 | 0.00 | 0.01 | 0.00 | 91 | 1014.5 |
| 20260508063203 | 43 | 0 | 0.0 | 0.0 | 0.00 | 0.01 | 0.00 | 91 | 1014.5 |
| 20260508063103 | 43 | 0 | 0.0 | 0.0 | 0.00 | 0.01 | 0.00 | 91 | 1014.5 |
| 20260508063003 | 43 | 0 | 0.0 | 0.0 | 0.00 | 0.01 | 0.00 | 91 | 1014.6 |
| 20260508062903 | 43 | 0 | 0.0 | 0.0 | 0.00 | 0.01 | 0.00 | 91 | 1014.6 |
| 20260508062804 | 43 | 0 | 0.0 | 0.0 | 0.00 | 0.01 | 0.00 | 91 | 1014.6 |
| 20260508062703 | 43 | 0 | 0.0 | 0.0 | 0.00 | 0.01 | 0.00 | 91 | 1014.6 |
| 20260508062604 | 43 | 0 | 0.0 | 0.0 | 0.00 | 0.01 | 0.00 | 91 | 1014.6 |
| 20260508062504 | 43 | 0 | 0.0 | 0.0 | 0.00 | 0.01 | 0.00 | 91 | 1014.7 |
| 20260508062403 | 43 | 0 | 0.0 | 0.0 | 0.00 | 0.01 | 0.00 | 91 | 1014.7 |
| 20260508062306 | 43 | 0 | 0.0 | 0.0 | 0.00 | 0.01 | 0.00 | 91 | 1014.8 |
| 20260508062203 | 43 | 0 | 0.0 | 0.0 | 0.00 | 0.01 | 0.00 | 91 | 1014.9 |
| 20260508062104 | 43 | 0 | 0.0 | 0.0 | 0.00 | 0.01 | 0.00 | 91 | 1014.9 |
| 20260508062004 | 43 | 0 | 0.0 | 0.0 | 0.00 | 0.01 | 0.00 | 91 | 1014.9 |
| 20260508061804 | 43 | 0 | 0.0 | 0.0 | 0.00 | 0.01 | 0.00 | 91 | 1014.9 |
| 20260508061703 | 43 | 0 | 0.0 | 0.0 | 0.00 | 0.01 | 0.00 | 91 | 1014.9 |
| 20260508061603 | 43 | 0 | 0.0 | 0.0 | 0.00 | 0.01 | 0.00 | 91 | 1014.9 |
| 20260508061403 | 43 | 0 | 0.0 | 0.0 | 0.00 | 0.01 | 0.00 | 91 | 1014.9 |
| 20260508061303 | 43 | 0 | 0.0 | 0.0 | 0.00 | 0.01 | 0.00 | 91 | 1014.9 |
| 20260508061204 | 44 | 0 | 0.0 | 0.0 | 0.00 | 0.01 | 0.00 | 91 | 1014.9 |
| 20260508061103 | 44 | 0 | 0.0 | 0.0 | 0.00 | 0.01 | 0.00 | 91 | 1014.9 |
| 20260508061003 | 44 | 0 | 0.0 | 0.0 | 0.00 | 0.01 | 0.00 | 91 | 1014.9 |
| 20260508060904 | 44 | 0 | 0.0 | 0.0 | 0.00 | 0.01 | 0.00 | 91 | 1014.8 |
| 20260508060704 | 44 | 0 | 0.0 | 0.0 | 0.00 | 0.01 | 0.00 | 91 | 1014.9 |
| 20260508060604 | 44 | 0 | 0.0 | 0.0 | 0.00 | 0.01 | 0.00 | 90 | 1014.9 |
| 20260508060504 | 44 | 0 | 0.0 | 0.0 | 0.00 | 0.01 | 0.00 | 90 | 1014.9 |
| 20260508060403 | 44 | 0 | 0.0 | 0.0 | 0.00 | 0.01 | 0.00 | 90 | 1014.9 |
| 20260508060304 | 44 | 0 | 0.0 | 0.0 | 0.00 | 0.01 | 0.00 | 90 | 1014.9 |
| 20260508060104 | 44 | 0 | 0.0 | 0.0 | 0.00 | 0.01 | 0.00 | 90 | 1014.9 |
| 20260508060003 | 44 | 0 | 0.0 | 0.0 | 0.00 | 0.01 | 0.00 | 90 | 1014.9 |
| 20260508055903 | 44 | 0 | 0.0 | 0.0 | 0.00 | 0.01 | 0.00 | 90 | 1014.9 |
| 20260508055703 | 44 | 0 | 0.0 | 0.0 | 0.00 | 0.01 | 0.00 | 90 | 1014.9 |
| 20260508055604 | 44 | 0 | 0.0 | 0.0 | 0.00 | 0.01 | 0.00 | 90 | 1014.9 |
| 20260508055504 | 44 | 0 | 0.0 | 0.0 | 0.00 | 0.01 | 0.00 | 90 | 1014.9 |
| 20260508055403 | 44 | 0 | 0.0 | 0.0 | 0.00 | 0.01 | 0.00 | 90 | 1014.9 |
| 20260508055306 | 44 | 0 | 0.0 | 0.0 | 0.00 | 0.01 | 0.00 | 90 | 1014.9 |
| 20260508055203 | 44 | 0 | 0.0 | 0.0 | 0.00 | 0.01 | 0.00 | 90 | 1015.0 |
| 20260508055004 | 44 | 0 | 0.0 | 0.0 | 0.00 | 0.01 | 0.00 | 90 | 1015.0 |
| 20260508054903 | 44 | 0 | 0.0 | 0.0 | 0.00 | 0.01 | 0.00 | 90 | 1014.9 |
| 20260508054803 | 44 | 0 | 0.0 | 0.0 | 0.00 | 0.01 | 0.00 | 90 | 1014.9 |
| 20260508054603 | 44 | 0 | 0.0 | 0.0 | 0.00 | 0.01 | 0.00 | 90 | 1014.8 |
| 20260508054504 | 44 | 0 | 0.0 | 0.0 | 0.00 | 0.01 | 0.00 | 90 | 1014.8 |
| 20260508054403 | 44 | 0 | 0.0 | 0.0 | 0.00 | 0.01 | 0.00 | 90 | 1014.9 |
| 20260508054203 | 44 | 0 | 0.0 | 0.0 | 0.00 | 0.01 | 0.00 | 90 | 1014.9 |
| 20260508054104 | 44 | 0 | 0.0 | 0.0 | 0.00 | 0.01 | 0.00 | 90 | 1014.8 |
| 20260508054004 | 44 | 0 | 0.0 | 0.0 | 0.00 | 0.01 | 0.00 | 90 | 1014.8 |
| 20260508053803 | 44 | 0 | 0.0 | 0.0 | 0.00 | 0.01 | 0.00 | 90 | 1014.9 |
| 20260508053703 | 44 | 0 | 0.0 | 0.0 | 0.00 | 0.01 | 0.00 | 90 | 1014.9 |
| 20260508053604 | 44 | 0 | 0.0 | 0.0 | 0.00 | 0.01 | 0.00 | 90 | 1014.8 |
| 20260508053503 | 44 | 0 | 0.0 | 0.0 | 0.00 | 0.01 | 0.00 | 90 | 1014.8 |
| 20260508053403 | 44 | 0 | 0.0 | 0.0 | 0.00 | 0.01 | 0.00 | 90 | 1014.8 |
| 20260508053303 | 44 | 0 | 0.0 | 0.0 | 0.00 | 0.01 | 0.00 | 90 | 1014.8 |
| 20260508053203 | 44 | 0 | 0.0 | 0.0 | 0.00 | 0.01 | 0.00 | 90 | 1014.8 |
| 20260508053004 | 44 | 0 | 0.0 | 0.0 | 0.00 | 0.01 | 0.00 | 90 | 1014.8 |
| 20260508052903 | 44 | 0 | 0.0 | 0.0 | 0.00 | 0.01 | 0.00 | 90 | 1014.8 |
| 20260508052804 | 44 | 0 | 0.0 | 0.0 | 0.00 | 0.01 | 0.00 | 90 | 1014.8 |
| 20260508052604 | 44 | 0 | 0.0 | 0.0 | 0.00 | 0.01 | 0.00 | 90 | 1014.7 |
| 20260508052504 | 44 | 0 | 0.0 | 0.0 | 0.00 | 0.01 | 0.00 | 90 | 1014.7 |
| 20260508052306 | 44 | 0 | 0.0 | 0.0 | 0.00 | 0.01 | 0.00 | 90 | 1014.7 |
| 20260508052204 | 44 | 0 | 0.0 | 0.0 | 0.00 | 0.01 | 0.00 | 90 | 1014.7 |
| 20260508052103 | 44 | 0 | 0.0 | 0.0 | 0.00 | 0.01 | 0.00 | 90 | 1014.7 |
| 20260508052004 | 44 | 0 | 0.0 | 0.0 | 0.00 | 0.01 | 0.00 | 90 | 1014.7 |
| 20260508051903 | 44 | 0 | 0.0 | 0.0 | 0.00 | 0.01 | 0.00 | 90 | 1014.7 |
| 20260508051803 | 45 | 0 | 0.0 | 0.0 | 0.00 | 0.01 | 0.00 | 90 | 1014.7 |
| 20260508051704 | 45 | 0 | 0.0 | 0.0 | 0.00 | 0.01 | 0.00 | 90 | 1014.7 |
| 20260508051604 | 45 | 0 | 0.0 | 0.0 | 0.00 | 0.01 | 0.00 | 90 | 1014.7 |
| 20260508051503 | 45 | 0 | 0.0 | 0.0 | 0.00 | 0.01 | 0.00 | 90 | 1014.7 |
| 20260508051403 | 45 | 0 | 0.0 | 0.0 | 0.00 | 0.01 | 0.00 | 90 | 1014.7 |
| 20260508051204 | 45 | 0 | 0.0 | 0.0 | 0.00 | 0.01 | 0.00 | 90 | 1014.6 |
| 20260508051104 | 45 | 0 | 0.0 | 0.0 | 0.00 | 0.01 | 0.00 | 90 | 1014.6 |
| 20260508051004 | 45 | 0 | 0.0 | 0.0 | 0.00 | 0.01 | 0.00 | 90 | 1014.6 |
| 20260508050904 | 45 | 0 | 0.0 | 0.0 | 0.00 | 0.01 | 0.00 | 90 | 1014.6 |
| 20260508050803 | 45 | 0 | 0.0 | 0.0 | 0.00 | 0.01 | 0.00 | 90 | 1014.6 |
| 20260508050703 | 45 | 0 | 0.0 | 0.0 | 0.00 | 0.01 | 0.00 | 90 | 1014.6 |
| 20260508050604 | 45 | 0 | 0.0 | 0.0 | 0.00 | 0.01 | 0.00 | 90 | 1014.6 |
| 20260508050503 | 45 | 0 | 0.0 | 0.0 | 0.00 | 0.01 | 0.00 | 90 | 1014.6 |
| 20260508050404 | 45 | 0 | 0.0 | 0.0 | 0.00 | 0.01 | 0.00 | 90 | 1014.6 |
| 20260508050204 | 45 | 0 | 0.0 | 0.0 | 0.00 | 0.01 | 0.00 | 90 | 1014.7 |
| 20260508050103 | 45 | 0 | 0.0 | 0.0 | 0.00 | 0.01 | 0.00 | 90 | 1014.7 |
| 20260508050003 | 45 | 0 | 0.0 | 0.0 | 0.00 | 0.01 | 0.00 | 90 | 1014.7 |
| 20260508045904 | 45 | 0 | 0.0 | 0.0 | 0.00 | 0.01 | 0.01 | 90 | 1014.7 |
| 20260508045803 | 45 | 0 | 0.0 | 0.0 | 0.00 | 0.01 | 0.01 | 90 | 1014.8 |
| 20260508045703 | 45 | 0 | 0.0 | 0.0 | 0.00 | 0.01 | 0.01 | 90 | 1014.8 |
| 20260508045604 | 45 | 0 | 0.0 | 0.0 | 0.00 | 0.01 | 0.01 | 90 | 1014.7 |
| 20260508045504 | 45 | 0 | 0.0 | 0.0 | 0.00 | 0.01 | 0.01 | 90 | 1014.7 |
| 20260508045403 | 45 | 0 | 0.0 | 0.0 | 0.00 | 0.01 | 0.01 | 90 | 1014.8 |
| 20260508045307 | 45 | 0 | 0.0 | 0.0 | 0.00 | 0.01 | 0.01 | 90 | 1014.8 |
| 20260508045103 | 45 | 0 | 0.0 | 0.0 | 0.00 | 0.01 | 0.01 | 90 | 1014.8 |
| 20260508045003 | 45 | 0 | 0.0 | 0.0 | 0.00 | 0.01 | 0.01 | 90 | 1014.8 |
| 20260508044903 | 45 | 0 | 0.0 | 0.0 | 0.00 | 0.01 | 0.01 | 90 | 1014.7 |
| 20260508044803 | 45 | 0 | 0.0 | 0.0 | 0.00 | 0.01 | 0.01 | 90 | 1014.8 |
| 20260508044704 | 45 | 0 | 0.0 | 0.0 | 0.00 | 0.01 | 0.01 | 90 | 1014.8 |
| 20260508044503 | 45 | 0 | 0.0 | 0.0 | 0.00 | 0.01 | 0.01 | 90 | 1014.7 |
| 20260508044403 | 45 | 0 | 0.0 | 0.0 | 0.00 | 0.01 | 0.01 | 90 | 1014.7 |
| 20260508044204 | 45 | 0 | 0.0 | 0.0 | 0.00 | 0.01 | 0.01 | 90 | 1014.7 |
| 20260508044103 | 45 | 0 | 0.0 | 0.0 | 0.00 | 0.01 | 0.01 | 90 | 1014.8 |
| 20260508044004 | 45 | 0 | 0.0 | 0.0 | 0.00 | 0.01 | 0.01 | 90 | 1014.8 |
| 20260508043803 | 45 | 0 | 0.0 | 0.0 | 0.00 | 0.01 | 0.01 | 90 | 1014.8 |
| 20260508043703 | 45 | 0 | 0.0 | 0.0 | 0.00 | 0.01 | 0.01 | 90 | 1014.8 |
| 20260508043604 | 45 | 0 | 0.0 | 0.0 | 0.00 | 0.01 | 0.01 | 90 | 1014.9 |
| 20260508043503 | 45 | 0 | 0.0 | 0.0 | 0.00 | 0.01 | 0.01 | 90 | 1014.9 |
| 20260508043404 | 45 | 0 | 0.0 | 0.0 | 0.00 | 0.01 | 0.01 | 90 | 1014.9 |
| 20260508043303 | 45 | 0 | 0.0 | 0.0 | 0.00 | 0.01 | 0.01 | 90 | 1014.9 |
| 20260508043203 | 45 | 0 | 0.0 | 0.0 | 0.00 | 0.01 | 0.01 | 90 | 1014.9 |
| 20260508043103 | 45 | 0 | 0.0 | 0.0 | 0.00 | 0.01 | 0.01 | 90 | 1014.9 |
| 20260508043003 | 45 | 0 | 0.0 | 0.0 | 0.00 | 0.01 | 0.01 | 90 | 1014.8 |
| 20260508042903 | 45 | 0 | 0.0 | 0.0 | 0.00 | 0.01 | 0.01 | 90 | 1014.8 |
| 20260508042803 | 45 | 0 | 0.0 | 0.0 | 0.00 | 0.01 | 0.01 | 90 | 1014.9 |
| 20260508042704 | 45 | 0 | 0.0 | 0.0 | 0.00 | 0.01 | 0.01 | 90 | 1014.9 |
| 20260508042603 | 45 | 0 | 0.0 | 0.0 | 0.00 | 0.01 | 0.01 | 90 | 1014.9 |
| 20260508042504 | 45 | 0 | 0.0 | 0.0 | 0.00 | 0.01 | 0.01 | 90 | 1014.9 |
| 20260508042404 | 45 | 0 | 0.0 | 0.0 | 0.00 | 0.01 | 0.01 | 90 | 1014.9 |
| 20260508042306 | 45 | 0 | 0.0 | 0.0 | 0.00 | 0.01 | 0.01 | 90 | 1014.9 |
| 20260508042203 | 45 | 0 | 0.0 | 0.0 | 0.00 | 0.01 | 0.01 | 90 | 1014.9 |
| 20260508042103 | 45 | 0 | 0.0 | 0.0 | 0.00 | 0.01 | 0.01 | 90 | 1014.9 |
| 20260508042003 | 45 | 0 | 0.0 | 0.0 | 0.00 | 0.01 | 0.01 | 90 | 1014.9 |
| 20260508041904 | 45 | 0 | 0.0 | 0.0 | 0.00 | 0.01 | 0.01 | 90 | 1014.9 |
| 20260508041804 | 45 | 0 | 0.0 | 0.0 | 0.00 | 0.01 | 0.01 | 90 | 1014.9 |
| 20260508041703 | 45 | 0 | 0.0 | 0.0 | 0.00 | 0.01 | 0.01 | 90 | 1014.9 |
| 20260508041603 | 45 | 0 | 0.0 | 0.0 | 0.00 | 0.01 | 0.01 | 90 | 1014.9 |
| 20260508041518 | 45 | 0 | 0.0 | 0.0 | 0.00 | 0.01 | 0.01 | 90 | 1014.9 |
| 20260508041403 | 45 | 0 | 0.0 | 0.0 | 0.00 | 0.01 | 0.01 | 90 | 1014.9 |
| 20260508041204 | 45 | 0 | 0.0 | 0.0 | 0.00 | 0.01 | 0.01 | 90 | 1014.9 |
| 20260508041104 | 45 | 0 | 0.0 | 0.0 | 0.00 | 0.01 | 0.01 | 90 | 1014.9 |
| 20260508041003 | 45 | 0 | 0.0 | 0.0 | 0.00 | 0.01 | 0.01 | 90 | 1014.8 |
| 20260508040904 | 45 | 0 | 0.0 | 0.0 | 0.00 | 0.01 | 0.01 | 90 | 1014.8 |
| 20260508040804 | 45 | 0 | 0.0 | 0.0 | 0.00 | 0.01 | 0.01 | 90 | 1014.8 |
| 20260508040704 | 45 | 0 | 0.0 | 0.0 | 0.00 | 0.01 | 0.01 | 90 | 1014.8 |
| 20260508040603 | 45 | 0 | 0.0 | 0.0 | 0.00 | 0.01 | 0.01 | 90 | 1014.8 |
| 20260508040503 | 45 | 0 | 0.0 | 0.0 | 0.00 | 0.01 | 0.01 | 90 | 1014.8 |
| 20260508040403 | 45 | 0 | 0.0 | 0.0 | 0.00 | 0.01 | 0.01 | 90 | 1014.8 |
| 20260508040317 | 45 | 0 | 0.0 | 0.0 | 0.00 | 0.01 | 0.01 | 90 | 1014.8 |
| 20260508040204 | 45 | 0 | 0.0 | 0.0 | 0.00 | 0.01 | 0.01 | 90 | 1014.9 |
| 20260508040003 | 45 | 0 | 0.0 | 0.0 | 0.00 | 0.01 | 0.01 | 90 | 1014.9 |
| 20260508035903 | 45 | 0 | 0.0 | 0.0 | 0.00 | 0.01 | 0.01 | 90 | 1014.9 |
| 20260508035803 | 45 | 0 | 0.0 | 0.0 | 0.00 | 0.01 | 0.01 | 90 | 1014.9 |
| 20260508035703 | 45 | 0 | 0.0 | 0.0 | 0.00 | 0.01 | 0.01 | 90 | 1014.8 |
| 20260508035603 | 45 | 0 | 0.0 | 0.0 | 0.00 | 0.01 | 0.01 | 90 | 1014.8 |
| 20260508035504 | 45 | 280 | 0.0 | 1.0 | 0.00 | 0.01 | 0.01 | 90 | 1014.8 |
| 20260508035403 | 46 | 280 | 0.0 | 1.0 | 0.00 | 0.01 | 0.01 | 90 | 1014.8 |
| 20260508035306 | 46 | 280 | 0.0 | 1.0 | 0.00 | 0.01 | 0.01 | 90 | 1014.8 |
| 20260508035103 | 46 | 280 | 0.0 | 1.0 | 0.00 | 0.01 | 0.01 | 90 | 1014.7 |
| 20260508035003 | 46 | 280 | 0.0 | 1.0 | 0.00 | 0.01 | 0.01 | 90 | 1014.7 |
| 20260508034803 | 46 | 280 | 0.0 | 1.0 | 0.00 | 0.01 | 0.01 | 90 | 1014.7 |
| 20260508034704 | 46 | 280 | 0.0 | 1.0 | 0.00 | 0.01 | 0.01 | 90 | 1014.7 |
| 20260508034603 | 46 | 280 | 0.0 | 1.0 | 0.00 | 0.01 | 0.01 | 90 | 1014.8 |
| 20260508034503 | 46 | 0 | 0.0 | 0.0 | 0.00 | 0.01 | 0.01 | 89 | 1014.8 |
| 20260508034403 | 46 | 0 | 0.0 | 0.0 | 0.00 | 0.01 | 0.01 | 89 | 1014.7 |
| 20260508034304 | 46 | 0 | 0.0 | 0.0 | 0.00 | 0.01 | 0.01 | 89 | 1014.7 |
| 20260508034203 | 46 | 0 | 0.0 | 0.0 | 0.00 | 0.01 | 0.01 | 89 | 1014.7 |
| 20260508034103 | 46 | 0 | 0.0 | 0.0 | 0.00 | 0.01 | 0.01 | 89 | 1014.7 |
| 20260508034004 | 46 | 0 | 0.0 | 0.0 | 0.00 | 0.01 | 0.01 | 89 | 1014.7 |
| 20260508033804 | 46 | 0 | 0.0 | 0.0 | 0.00 | 0.01 | 0.01 | 89 | 1014.7 |
| 20260508033703 | 46 | 0 | 0.0 | 0.0 | 0.00 | 0.01 | 0.01 | 89 | 1014.7 |
| 20260508033603 | 46 | 0 | 0.0 | 0.0 | 0.00 | 0.01 | 0.01 | 89 | 1014.6 |
| 20260508033504 | 46 | 0 | 0.0 | 0.0 | 0.00 | 0.01 | 0.01 | 89 | 1014.6 |
| 20260508033403 | 46 | 0 | 0.0 | 0.0 | 0.00 | 0.01 | 0.01 | 89 | 1014.7 |
| 20260508033203 | 46 | 0 | 0.0 | 0.0 | 0.00 | 0.01 | 0.01 | 89 | 1014.7 |
| 20260508033104 | 46 | 0 | 0.0 | 0.0 | 0.00 | 0.01 | 0.01 | 89 | 1014.7 |
| 20260508033004 | 46 | 0 | 0.0 | 0.0 | 0.00 | 0.01 | 0.01 | 89 | 1014.7 |
| 20260508032804 | 47 | 0 | 0.0 | 0.0 | 0.00 | 0.01 | 0.01 | 88 | 1014.6 |
| 20260508032703 | 47 | 0 | 0.0 | 0.0 | 0.00 | 0.01 | 0.01 | 88 | 1014.6 |
| 20260508032604 | 47 | 0 | 0.0 | 0.0 | 0.00 | 0.01 | 0.01 | 89 | 1014.6 |
| 20260508032504 | 47 | 0 | 0.0 | 0.0 | 0.00 | 0.01 | 0.01 | 89 | 1014.6 |
| 20260508032403 | 47 | 0 | 0.0 | 0.0 | 0.00 | 0.01 | 0.01 | 89 | 1014.6 |
| 20260508032306 | 47 | 0 | 0.0 | 0.0 | 0.00 | 0.01 | 0.01 | 89 | 1014.5 |
| 20260508032104 | 47 | 0 | 0.0 | 0.0 | 0.00 | 0.01 | 0.01 | 89 | 1014.6 |
| 20260508032003 | 47 | 0 | 0.0 | 0.0 | 0.00 | 0.01 | 0.01 | 89 | 1014.5 |
| 20260508031903 | 47 | 0 | 0.0 | 0.0 | 0.00 | 0.01 | 0.01 | 88 | 1014.5 |
| 20260508031804 | 47 | 0 | 0.0 | 0.0 | 0.00 | 0.01 | 0.01 | 89 | 1014.5 |
| 20260508031603 | 47 | 0 | 0.0 | 0.0 | 0.00 | 0.01 | 0.01 | 88 | 1014.5 |
| 20260508031504 | 47 | 0 | 0.0 | 0.0 | 0.00 | 0.01 | 0.01 | 88 | 1014.6 |
| 20260508031403 | 47 | 0 | 0.0 | 0.0 | 0.00 | 0.01 | 0.01 | 88 | 1014.6 |
| 20260508031303 | 47 | 0 | 0.0 | 0.0 | 0.00 | 0.01 | 0.01 | 88 | 1014.6 |
| 20260508031203 | 47 | 0 | 0.0 | 0.0 | 0.00 | 0.01 | 0.01 | 88 | 1014.6 |
| 20260508031103 | 47 | 0 | 0.0 | 0.0 | 0.00 | 0.01 | 0.01 | 88 | 1014.6 |
| 20260508031003 | 47 | 0 | 0.0 | 0.0 | 0.00 | 0.01 | 0.01 | 88 | 1014.5 |
| 20260508030904 | 47 | 0 | 0.0 | 0.0 | 0.00 | 0.01 | 0.01 | 88 | 1014.5 |
| 20260508030804 | 47 | 0 | 0.0 | 0.0 | 0.00 | 0.01 | 0.01 | 88 | 1014.5 |
| 20260508030703 | 47 | 0 | 0.0 | 0.0 | 0.00 | 0.01 | 0.01 | 88 | 1014.5 |
| 20260508030604 | 47 | 0 | 0.0 | 0.0 | 0.00 | 0.01 | 0.01 | 88 | 1014.5 |
| 20260508030504 | 47 | 0 | 0.0 | 0.0 | 0.00 | 0.01 | 0.01 | 88 | 1014.6 |
| 20260508030303 | 47 | 0 | 0.0 | 0.0 | 0.00 | 0.01 | 0.01 | 88 | 1014.6 |
| 20260508030203 | 48 | 0 | 0.0 | 0.0 | 0.00 | 0.01 | 0.01 | 88 | 1014.5 |
| 20260508030004 | 48 | 0 | 0.0 | 0.0 | 0.00 | 0.01 | 0.01 | 87 | 1014.6 |
| 20260508025903 | 48 | 0 | 0.0 | 0.0 | 0.00 | 0.01 | 0.01 | 87 | 1014.6 |
| 20260508025803 | 48 | 0 | 0.0 | 0.0 | 0.00 | 0.01 | 0.01 | 87 | 1014.6 |
| 20260508025703 | 48 | 0 | 0.0 | 0.0 | 0.00 | 0.01 | 0.01 | 87 | 1014.5 |
| 20260508025603 | 48 | 0 | 0.0 | 0.0 | 0.00 | 0.01 | 0.01 | 87 | 1014.5 |
| 20260508025504 | 48 | 0 | 0.0 | 0.0 | 0.00 | 0.01 | 0.01 | 87 | 1014.6 |
| 20260508025403 | 48 | 0 | 0.0 | 0.0 | 0.00 | 0.01 | 0.01 | 87 | 1014.6 |
| 20260508025306 | 48 | 0 | 0.0 | 0.0 | 0.00 | 0.01 | 0.01 | 86 | 1014.6 |
| 20260508025204 | 48 | 0 | 0.0 | 0.0 | 0.00 | 0.01 | 0.01 | 86 | 1014.6 |
| 20260508025103 | 48 | 0 | 0.0 | 0.0 | 0.00 | 0.01 | 0.01 | 86 | 1014.6 |
| 20260508025004 | 48 | 0 | 0.0 | 0.0 | 0.00 | 0.01 | 0.01 | 86 | 1014.5 |
| 20260508024903 | 48 | 0 | 0.0 | 0.0 | 0.00 | 0.01 | 0.01 | 85 | 1014.5 |
| 20260508024803 | 48 | 0 | 0.0 | 0.0 | 0.00 | 0.01 | 0.01 | 85 | 1014.5 |
| 20260508024703 | 48 | 0 | 0.0 | 0.0 | 0.00 | 0.01 | 0.01 | 85 | 1014.5 |
| 20260508024503 | 48 | 0 | 0.0 | 0.0 | 0.00 | 0.01 | 0.01 | 85 | 1014.5 |
| 20260508024403 | 48 | 0 | 0.0 | 0.0 | 0.00 | 0.01 | 0.01 | 86 | 1014.4 |
| 20260508024303 | 48 | 0 | 0.0 | 0.0 | 0.00 | 0.01 | 0.01 | 86 | 1014.4 |
| 20260508024203 | 48 | 0 | 0.0 | 0.0 | 0.00 | 0.01 | 0.01 | 86 | 1014.4 |
| 20260508024103 | 48 | 0 | 0.0 | 0.0 | 0.00 | 0.01 | 0.01 | 86 | 1014.4 |
| 20260508023903 | 48 | 0 | 0.0 | 0.0 | 0.00 | 0.01 | 0.01 | 86 | 1014.3 |
| 20260508023803 | 48 | 0 | 0.0 | 0.0 | 0.00 | 0.01 | 0.01 | 86 | 1014.3 |
| 20260508023603 | 48 | 0 | 0.0 | 0.0 | 0.00 | 0.01 | 0.01 | 86 | 1014.2 |
| 20260508023504 | 48 | 0 | 0.0 | 0.0 | 0.00 | 0.01 | 0.01 | 86 | 1014.2 |
| 20260508023403 | 48 | 0 | 0.0 | 0.0 | 0.00 | 0.01 | 0.01 | 86 | 1014.2 |
| 20260508023303 | 48 | 0 | 0.0 | 0.0 | 0.00 | 0.01 | 0.01 | 86 | 1014.2 |
| 20260508023103 | 49 | 280 | 0.0 | 1.0 | 0.00 | 0.01 | 0.01 | 86 | 1014.2 |
| 20260508023003 | 49 | 280 | 0.0 | 1.0 | 0.00 | 0.01 | 0.01 | 86 | 1014.2 |
| 20260508022903 | 49 | 280 | 0.0 | 1.0 | 0.00 | 0.01 | 0.01 | 86 | 1014.2 |
| 20260508022803 | 49 | 280 | 0.0 | 1.0 | 0.00 | 0.01 | 0.01 | 85 | 1014.2 |
| 20260508022703 | 49 | 280 | 0.0 | 1.0 | 0.00 | 0.01 | 0.01 | 86 | 1014.3 |
| 20260508022604 | 49 | 280 | 0.0 | 1.0 | 0.00 | 0.01 | 0.01 | 86 | 1014.3 |
| 20260508022504 | 49 | 280 | 0.0 | 1.0 | 0.00 | 0.01 | 0.01 | 85 | 1014.3 |
| 20260508022405 | 49 | 280 | 0.0 | 1.0 | 0.00 | 0.01 | 0.01 | 85 | 1014.3 |
| 20260508022306 | 49 | 280 | 0.0 | 1.0 | 0.00 | 0.01 | 0.01 | 86 | 1014.3 |
| 20260508022204 | 49 | 280 | 0.0 | 1.0 | 0.00 | 0.01 | 0.01 | 86 | 1014.3 |
| 20260508022103 | 49 | 280 | 0.0 | 1.0 | 0.00 | 0.01 | 0.01 | 86 | 1014.3 |
| 20260508022003 | 49 | 280 | 0.0 | 1.0 | 0.00 | 0.01 | 0.01 | 86 | 1014.3 |
| 20260508021803 | 49 | 280 | 0.0 | 1.0 | 0.00 | 0.01 | 0.01 | 86 | 1014.4 |
| 20260508021704 | 49 | 280 | 0.0 | 1.0 | 0.00 | 0.01 | 0.01 | 86 | 1014.4 |
| 20260508021604 | 50 | 280 | 0.0 | 1.0 | 0.00 | 0.01 | 0.01 | 86 | 1014.4 |
| 20260508021504 | 50 | 280 | 0.0 | 1.0 | 0.00 | 0.01 | 0.01 | 86 | 1014.4 |
| 20260508021403 | 50 | 280 | 0.0 | 1.0 | 0.00 | 0.01 | 0.01 | 85 | 1014.4 |
| 20260508021304 | 50 | 280 | 0.0 | 1.0 | 0.00 | 0.01 | 0.01 | 85 | 1014.4 |
| 20260508021203 | 50 | 280 | 0.0 | 1.0 | 0.00 | 0.01 | 0.01 | 85 | 1014.4 |
| 20260508021103 | 50 | 280 | 0.0 | 1.0 | 0.00 | 0.01 | 0.01 | 85 | 1014.4 |
| 20260508021003 | 50 | 280 | 0.0 | 1.0 | 0.00 | 0.01 | 0.01 | 85 | 1014.4 |
| 20260508020903 | 50 | 280 | 0.0 | 1.0 | 0.00 | 0.01 | 0.01 | 85 | 1014.3 |
| 20260508020803 | 50 | 280 | 0.0 | 1.0 | 0.00 | 0.02 | 0.01 | 85 | 1014.2 |
| 20260508020703 | 50 | 280 | 0.0 | 1.0 | 0.00 | 0.02 | 0.01 | 85 | 1014.2 |
| 20260508020604 | 50 | 280 | 0.0 | 1.0 | 0.00 | 0.02 | 0.01 | 85 | 1014.1 |
| 20260508020403 | 50 | 280 | 0.0 | 1.0 | 0.00 | 0.03 | 0.01 | 85 | 1014.2 |
| 20260508020303 | 50 | 280 | 0.0 | 1.0 | 0.00 | 0.03 | 0.01 | 85 | 1014.1 |
| 20260508020203 | 50 | 280 | 0.0 | 1.0 | 0.00 | 0.03 | 0.01 | 85 | 1014.1 |
| 20260508020104 | 50 | 280 | 0.0 | 1.0 | 0.00 | 0.03 | 0.01 | 85 | 1014.2 |
| 20260508020004 | 50 | 280 | 0.0 | 1.0 | 0.00 | 0.03 | 0.01 | 85 | 1014.2 |
| 20260508015903 | 50 | 280 | 0.0 | 1.0 | 0.00 | 0.03 | 0.01 | 85 | 1014.2 |
| 20260508015803 | 50 | 280 | 0.0 | 1.0 | 0.00 | 0.03 | 0.01 | 84 | 1014.1 |
| 20260508015703 | 50 | 280 | 0.0 | 1.0 | 0.00 | 0.03 | 0.01 | 84 | 1014.1 |
| 20260508015604 | 51 | 280 | 0.0 | 1.0 | 0.00 | 0.03 | 0.01 | 84 | 1014.1 |
| 20260508015519 | 51 | 280 | 0.0 | 1.0 | 0.00 | 0.03 | 0.01 | 84 | 1014.1 |
| 20260508015403 | 51 | 280 | 0.0 | 1.0 | 0.00 | 0.03 | 0.01 | 84 | 1014.1 |
| 20260508015204 | 51 | 280 | 0.0 | 1.0 | 0.00 | 0.03 | 0.01 | 84 | 1014.1 |
| 20260508015103 | 51 | 280 | 0.0 | 1.0 | 0.00 | 0.03 | 0.01 | 84 | 1014.1 |
| 20260508014804 | 51 | 280 | 0.0 | 1.0 | 0.00 | 0.03 | 0.01 | 84 | 1014.0 |
| 20260508014703 | 51 | 280 | 0.0 | 1.0 | 0.00 | 0.03 | 0.01 | 84 | 1014.0 |
| 20260508014517 | 51 | 280 | 0.0 | 1.0 | 0.00 | 0.04 | 0.01 | 84 | 1014.0 |
| 20260508014403 | 51 | 280 | 0.0 | 1.0 | 0.00 | 0.04 | 0.01 | 84 | 1014.0 |
| 20260508014204 | 51 | 280 | 0.0 | 1.0 | 0.00 | 0.04 | 0.01 | 84 | 1014.0 |
| 20260508014104 | 51 | 280 | 0.0 | 1.0 | 0.00 | 0.04 | 0.01 | 84 | 1014.0 |
| 20260508014003 | 51 | 280 | 0.0 | 1.0 | 0.00 | 0.04 | 0.01 | 84 | 1013.9 |
| 20260508013903 | 51 | 280 | 0.0 | 1.0 | 0.00 | 0.04 | 0.01 | 84 | 1013.9 |
| 20260508013703 | 51 | 280 | 0.0 | 1.0 | 0.00 | 0.05 | 0.01 | 84 | 1013.7 |
| 20260508013603 | 51 | 280 | 0.0 | 1.0 | 0.00 | 0.05 | 0.01 | 84 | 1013.7 |
| 20260508013503 | 51 | 280 | 0.0 | 1.0 | 0.00 | 0.05 | 0.01 | 83 | 1013.7 |
| 20260508013404 | 51 | 280 | 0.0 | 1.0 | 0.00 | 0.05 | 0.01 | 83 | 1013.7 |
| 20260508013304 | 51 | 280 | 0.0 | 1.0 | 0.00 | 0.05 | 0.01 | 83 | 1013.7 |
| 20260508013204 | 51 | 280 | 0.0 | 1.0 | 0.00 | 0.05 | 0.01 | 83 | 1013.7 |
| 20260508013103 | 51 | 280 | 0.0 | 1.0 | 0.00 | 0.05 | 0.01 | 82 | 1013.7 |
| 20260508013005 | 51 | 280 | 0.0 | 1.0 | 0.00 | 0.05 | 0.01 | 82 | 1013.6 |
| 20260508012804 | 52 | 280 | 0.0 | 1.0 | 0.00 | 0.05 | 0.01 | 82 | 1013.6 |
| 20260508012703 | 52 | 280 | 0.0 | 1.0 | 0.00 | 0.05 | 0.01 | 82 | 1013.5 |
| 20260508012603 | 52 | 280 | 0.0 | 1.0 | 0.00 | 0.05 | 0.01 | 82 | 1013.5 |
| 20260508012404 | 52 | 280 | 0.0 | 1.0 | 0.00 | 0.05 | 0.01 | 81 | 1013.4 |
| 20260508012307 | 52 | 280 | 0.0 | 1.0 | 0.00 | 0.05 | 0.01 | 81 | 1013.4 |
| 20260508012204 | 52 | 280 | 0.0 | 1.0 | 0.00 | 0.05 | 0.01 | 81 | 1013.4 |
| 20260508012103 | 52 | 280 | 0.0 | 1.0 | 0.00 | 0.05 | 0.01 | 82 | 1013.4 |
| 20260508012018 | 52 | 280 | 0.0 | 1.0 | 0.00 | 0.05 | 0.01 | 82 | 1013.4 |
| 20260508011918 | 52 | 280 | 0.0 | 1.0 | 0.00 | 0.05 | 0.01 | 81 | 1013.4 |
| 20260508011904 | 52 | 280 | 0.0 | 1.0 | 0.00 | 0.05 | 0.01 | 81 | 1013.3 |
| 20260508011603 | 52 | 280 | 0.0 | 1.0 | 0.00 | 0.05 | 0.01 | 81 | 1013.4 |
| 20260508011503 | 52 | 280 | 0.0 | 1.0 | 0.00 | 0.06 | 0.01 | 80 | 1013.4 |
| 20260508011404 | 52 | 280 | 0.0 | 1.0 | 0.00 | 0.06 | 0.01 | 80 | 1013.4 |
| 20260508011204 | 52 | 280 | 0.0 | 1.0 | 0.00 | 0.06 | 0.01 | 80 | 1013.4 |
| 20260508011103 | 53 | 280 | 0.0 | 1.0 | 0.00 | 0.06 | 0.01 | 80 | 1013.4 |
| 20260508011004 | 53 | 280 | 0.0 | 1.0 | 0.00 | 0.06 | 0.01 | 80 | 1013.4 |
| 20260508010903 | 53 | 280 | 0.0 | 1.0 | 0.00 | 0.06 | 0.01 | 79 | 1013.4 |
| 20260508010804 | 53 | 280 | 0.0 | 1.0 | 0.00 | 0.06 | 0.01 | 79 | 1013.4 |
| 20260508010703 | 53 | 280 | 0.0 | 1.0 | 0.00 | 0.06 | 0.01 | 79 | 1013.3 |
| 20260508010603 | 53 | 280 | 0.0 | 1.0 | 0.00 | 0.06 | 0.01 | 79 | 1013.3 |
| 20260508010503 | 53 | 280 | 0.0 | 1.0 | 0.00 | 0.06 | 0.01 | 78 | 1013.3 |
| 20260508010303 | 53 | 280 | 0.0 | 1.0 | 0.00 | 0.06 | 0.01 | 78 | 1013.2 |
| 20260508010204 | 53 | 280 | 0.0 | 1.0 | 0.00 | 0.06 | 0.01 | 79 | 1013.2 |
| 20260508010117 | 53 | 280 | 0.0 | 1.0 | 0.00 | 0.06 | 0.01 | 79 | 1013.2 |
| 20260508010105 | 53 | 280 | 0.0 | 1.0 | 0.00 | 0.06 | 0.01 | 78 | 1013.2 |
| 20260508010004 | 53 | 280 | 0.0 | 1.0 | 0.00 | 0.06 | 0.01 | 78 | 1013.2 |
| 20260508005804 | 53 | 280 | 0.0 | 1.0 | 0.00 | 0.06 | 0.01 | 79 | 1013.3 |
| 20260508005703 | 54 | 280 | 0.0 | 1.0 | 0.00 | 0.06 | 0.01 | 79 | 1013.3 |
| 20260508005603 | 54 | 280 | 0.0 | 1.0 | 0.00 | 0.06 | 0.01 | 79 | 1013.3 |
| 20260508005504 | 54 | 280 | 0.0 | 1.0 | 0.00 | 0.06 | 0.01 | 78 | 1013.3 |
| 20260508005403 | 54 | 280 | 0.0 | 1.0 | 0.00 | 0.06 | 0.01 | 78 | 1013.3 |
| 20260508005305 | 54 | 280 | 0.0 | 1.0 | 0.00 | 0.06 | 0.01 | 78 | 1013.3 |
| 20260508005103 | 54 | 280 | 0.0 | 1.0 | 0.00 | 0.06 | 0.01 | 77 | 1013.3 |
| 20260508005004 | 54 | 280 | 0.0 | 1.0 | 0.00 | 0.06 | 0.01 | 77 | 1013.3 |
| 20260508004904 | 54 | 280 | 0.0 | 1.0 | 0.00 | 0.06 | 0.01 | 76 | 1013.3 |
| 20260508004803 | 54 | 280 | 0.0 | 1.0 | 0.00 | 0.06 | 0.01 | 76 | 1013.3 |
| 20260508004703 | 55 | 280 | 0.0 | 1.0 | 0.00 | 0.06 | 0.01 | 75 | 1013.3 |
| 20260508004603 | 55 | 280 | 0.0 | 1.0 | 0.00 | 0.06 | 0.01 | 74 | 1013.3 |
| 20260508004503 | 55 | 280 | 0.0 | 1.0 | 0.00 | 0.06 | 0.01 | 75 | 1013.3 |
| 20260508004403 | 55 | 280 | 0.0 | 1.0 | 0.00 | 0.06 | 0.01 | 73 | 1013.3 |
| 20260508004303 | 55 | 0 | 0.0 | 0.0 | 0.00 | 0.06 | 0.01 | 73 | 1013.3 |
| 20260508004203 | 55 | 0 | 0.0 | 0.0 | 0.00 | 0.06 | 0.01 | 73 | 1013.3 |
| 20260508004103 | 55 | 0 | 0.0 | 0.0 | 0.00 | 0.06 | 0.01 | 72 | 1013.2 |
| 20260508004003 | 56 | 0 | 0.0 | 0.0 | 0.00 | 0.06 | 0.01 | 71 | 1013.2 |
| 20260508003903 | 56 | 280 | 0.0 | 1.0 | 0.00 | 0.06 | 0.01 | 70 | 1013.2 |
| 20260508003803 | 56 | 280 | 0.0 | 1.0 | 0.00 | 0.06 | 0.01 | 69 | 1013.1 |
| 20260508003703 | 56 | 280 | 0.0 | 1.0 | 0.00 | 0.06 | 0.01 | 69 | 1013.1 |
| 20260508003603 | 56 | 280 | 0.0 | 1.0 | 0.00 | 0.06 | 0.01 | 69 | 1013.1 |
| 20260508003516 | 56 | 280 | 0.0 | 1.0 | 0.00 | 0.06 | 0.01 | 69 | 1013.1 |
| 20260508003504 | 56 | 280 | 0.0 | 1.0 | 0.00 | 0.06 | 0.01 | 69 | 1013.2 |
| 20260508003403 | 56 | 280 | 0.0 | 1.0 | 0.00 | 0.06 | 0.01 | 69 | 1013.2 |
| 20260508003203 | 56 | 280 | 0.0 | 1.0 | 0.00 | 0.06 | 0.01 | 68 | 1013.1 |
| 20260508003105 | 56 | 280 | 0.0 | 1.0 | 0.00 | 0.06 | 0.01 | 68 | 1013.0 |
| 20260508003005 | 56 | 280 | 0.0 | 1.0 | 0.00 | 0.06 | 0.01 | 68 | 1013.1 |
| 20260508002904 | 56 | 280 | 0.0 | 1.0 | 0.00 | 0.06 | 0.01 | 68 | 1013.1 |
| 20260508002803 | 56 | 280 | 0.0 | 1.0 | 0.00 | 0.06 | 0.01 | 68 | 1013.0 |
| 20260508002703 | 57 | 280 | 0.0 | 1.0 | 0.00 | 0.06 | 0.01 | 68 | 1013.0 |
| 20260508002604 | 57 | 280 | 0.0 | 1.0 | 0.00 | 0.06 | 0.01 | 67 | 1013.0 |
| 20260508002518 | 57 | 0 | 0.0 | 0.0 | 0.00 | 0.06 | 0.01 | 67 | 1013.0 |
| 20260508002503 | 57 | 0 | 0.0 | 0.0 | 0.00 | 0.06 | 0.01 | 66 | 1013.0 |
| 20260508002417 | 57 | 0 | 0.0 | 0.0 | 0.00 | 0.06 | 0.01 | 66 | 1013.0 |
| 20260508002104 | 57 | 280 | 0.0 | 1.0 | 0.00 | 0.06 | 0.01 | 65 | 1012.9 |
| 20260508002004 | 57 | 280 | 0.0 | 1.0 | 0.00 | 0.06 | 0.01 | 66 | 1012.9 |
| 20260508001904 | 57 | 280 | 0.0 | 1.0 | 0.00 | 0.06 | 0.01 | 66 | 1012.9 |
| 20260508001804 | 57 | 280 | 0.0 | 1.0 | 0.00 | 0.06 | 0.01 | 65 | 1012.9 |
| 20260508001703 | 58 | 280 | 0.0 | 1.0 | 0.00 | 0.06 | 0.01 | 65 | 1012.9 |
| 20260508001603 | 58 | 280 | 0.0 | 1.0 | 0.00 | 0.06 | 0.01 | 65 | 1012.9 |
| 20260508001504 | 58 | 280 | 0.0 | 1.0 | 0.00 | 0.06 | 0.01 | 65 | 1012.8 |
| 20260508001304 | 58 | 280 | 0.0 | 1.0 | 0.00 | 0.06 | 0.01 | 64 | 1012.7 |
| 20260508001203 | 58 | 280 | 0.0 | 1.0 | 0.00 | 0.06 | 0.01 | 64 | 1012.7 |
| 20260508000904 | 59 | 280 | 0.0 | 2.0 | 0.00 | 0.06 | 0.01 | 63 | 1012.8 |
| 20260508000804 | 59 | 280 | 0.0 | 2.0 | 0.00 | 0.06 | 0.01 | 61 | 1012.7 |
| 20260508000703 | 59 | 280 | 0.0 | 2.0 | 0.00 | 0.06 | 0.01 | 61 | 1012.7 |
| 20260508000603 | 59 | 280 | 0.0 | 2.0 | 0.00 | 0.06 | 0.01 | 60 | 1012.7 |
| 20260508000504 | 59 | 280 | 0.0 | 2.0 | 0.00 | 0.06 | 0.01 | 61 | 1012.7 |
| 20260508000419 | 59 | 280 | 0.0 | 2.0 | 0.00 | 0.06 | 0.01 | 60 | 1012.7 |
| 20260508000404 | 59 | 280 | 0.0 | 2.0 | 0.00 | 0.06 | 0.01 | 60 | 1012.8 |
| 20260508000320 | 59 | 280 | 0.0 | 2.0 | 0.00 | 0.06 | 0.01 | 60 | 1012.8 |
| 20260508000305 | 59 | 280 | 0.0 | 2.0 | 0.00 | 0.06 | 0.01 | 58 | 1012.8 |
| 20260508000003 | 60 | 280 | 0.0 | 1.0 | 0.00 | 0.07 | 0.01 | 59 | 1012.8 |
| 20260507235904 | 60 | 280 | 0.0 | 2.0 | 0.00 | 0.07 | 0.01 | 59 | 1012.8 |
| 20260507235703 | 60 | 280 | 0.0 | 2.0 | 0.00 | 0.07 | 0.01 | 57 | 1012.8 |
| 20260507235603 | 60 | 280 | 0.0 | 2.0 | 0.00 | 0.07 | 0.01 | 58 | 1012.8 |
| 20260507235503 | 60 | 280 | 0.0 | 2.0 | 0.00 | 0.07 | 0.01 | 57 | 1012.8 |
| 20260507235403 | 60 | 280 | 0.0 | 2.0 | 0.00 | 0.07 | 0.01 | 58 | 1012.7 |
| 20260507235203 | 60 | 280 | 0.0 | 2.0 | 0.00 | 0.07 | 0.01 | 58 | 1012.7 |
| 20260507235103 | 60 | 280 | 0.0 | 2.0 | 0.00 | 0.07 | 0.01 | 57 | 1012.7 |
| 20260507235004 | 60 | 280 | 0.0 | 2.0 | 0.00 | 0.07 | 0.01 | 58 | 1012.6 |
| 20260507234904 | 60 | 280 | 0.0 | 1.0 | 0.00 | 0.07 | 0.01 | 57 | 1012.6 |
| 20260507234803 | 60 | 280 | 0.0 | 1.0 | 0.00 | 0.07 | 0.01 | 59 | 1012.6 |
| 20260507234704 | 60 | 280 | 0.0 | 1.0 | 0.00 | 0.07 | 0.01 | 58 | 1012.6 |
| 20260507234603 | 60 | 280 | 0.0 | 1.0 | 0.00 | 0.07 | 0.01 | 58 | 1012.6 |
| 20260507234404 | 61 | 280 | 0.0 | 1.0 | 0.00 | 0.07 | 0.01 | 58 | 1012.5 |
| 20260507234303 | 61 | 280 | 0.0 | 1.0 | 0.00 | 0.07 | 0.01 | 58 | 1012.5 |
| 20260507234203 | 61 | 280 | 0.0 | 1.0 | 0.00 | 0.07 | 0.01 | 57 | 1012.6 |
| 20260507234104 | 61 | 280 | 0.0 | 1.0 | 0.00 | 0.07 | 0.01 | 56 | 1012.5 |
| 20260507233903 | 61 | 280 | 0.0 | 1.0 | 0.00 | 0.07 | 0.01 | 55 | 1012.6 |
| 20260507233804 | 61 | 280 | 0.0 | 2.0 | 0.00 | 0.07 | 0.01 | 55 | 1012.6 |
| 20260507233703 | 61 | 280 | 0.0 | 2.0 | 0.00 | 0.07 | 0.01 | 55 | 1012.6 |
| 20260507233603 | 61 | 280 | 0.0 | 2.0 | 0.00 | 0.07 | 0.01 | 58 | 1012.6 |
| 20260507233504 | 61 | 280 | 0.0 | 2.0 | 0.00 | 0.07 | 0.01 | 56 | 1012.6 |
| 20260507233404 | 61 | 280 | 0.0 | 2.0 | 0.00 | 0.07 | 0.01 | 54 | 1012.6 |
| 20260507233304 | 61 | 280 | 0.0 | 2.0 | 0.00 | 0.07 | 0.01 | 56 | 1012.6 |
| 20260507233204 | 61 | 278 | 0.0 | 2.0 | 0.00 | 0.07 | 0.01 | 55 | 1012.6 |
| 20260507233103 | 62 | 277 | 0.0 | 2.0 | 0.00 | 0.07 | 0.01 | 55 | 1012.6 |
| 20260507233019 | 62 | 277 | 0.0 | 2.0 | 0.00 | 0.07 | 0.01 | 54 | 1012.6 |
| 20260507232903 | 62 | 277 | 0.0 | 2.0 | 0.00 | 0.07 | 0.01 | 54 | 1012.6 |
| 20260507232603 | 62 | 275 | 0.0 | 2.0 | 0.00 | 0.07 | 0.01 | 53 | 1012.6 |
| 20260507232504 | 62 | 275 | 0.0 | 2.0 | 0.00 | 0.07 | 0.01 | 54 | 1012.6 |
| 20260507232404 | 62 | 274 | 1.0 | 2.0 | 0.00 | 0.07 | 0.01 | 52 | 1012.6 |
| 20260507232306 | 62 | 267 | 1.0 | 2.0 | 0.00 | 0.07 | 0.01 | 54 | 1012.6 |
| 20260507232204 | 62 | 257 | 1.0 | 2.0 | 0.00 | 0.07 | 0.01 | 54 | 1012.6 |
| 20260507232103 | 62 | 248 | 1.0 | 2.0 | 0.00 | 0.07 | 0.01 | 55 | 1012.6 |
| 20260507232003 | 62 | 244 | 1.0 | 2.0 | 0.00 | 0.08 | 0.01 | 54 | 1012.6 |
| 20260507231917 | 62 | 245 | 1.0 | 2.0 | 0.00 | 0.08 | 0.01 | 54 | 1012.6 |
| 20260507231903 | 62 | 248 | 1.0 | 2.0 | 0.00 | 0.08 | 0.01 | 54 | 1012.6 |
| 20260507231803 | 62 | 256 | 1.0 | 3.0 | 0.00 | 0.08 | 0.01 | 53 | 1012.6 |
| 20260507231719 | 62 | 258 | 1.0 | 3.0 | 0.00 | 0.08 | 0.01 | 53 | 1012.6 |
| 20260507231603 | 62 | 262 | 1.0 | 3.0 | 0.00 | 0.08 | 0.01 | 56 | 1012.6 |
| 20260507231404 | 62 | 263 | 1.0 | 4.0 | 0.00 | 0.08 | 0.01 | 59 | 1012.5 |
| 20260507231317 | 62 | 265 | 1.0 | 4.0 | 0.00 | 0.08 | 0.01 | 55 | 1012.5 |
| 20260507231304 | 62 | 266 | 1.0 | 4.0 | 0.00 | 0.08 | 0.01 | 55 | 1012.5 |
| 20260507231204 | 62 | 270 | 1.0 | 4.0 | 0.00 | 0.08 | 0.01 | 55 | 1012.5 |
| 20260507231003 | 62 | 279 | 1.0 | 4.0 | 0.00 | 0.08 | 0.01 | 54 | 1012.5 |
| 20260507230918 | 62 | 280 | 0.0 | 4.0 | 0.00 | 0.08 | 0.01 | 54 | 1012.5 |
| 20260507230903 | 62 | 278 | 0.0 | 4.0 | 0.00 | 0.08 | 0.01 | 56 | 1012.5 |
| 20260507230803 | 62 | 267 | 0.0 | 4.0 | 0.00 | 0.08 | 0.01 | 54 | 1012.4 |
| 20260507230603 | 62 | 247 | 0.0 | 4.0 | 0.00 | 0.08 | 0.01 | 54 | 1012.5 |
| 20260507230503 | 62 | 235 | 0.0 | 3.0 | 0.00 | 0.08 | 0.01 | 55 | 1012.4 |
| 20260507230403 | 62 | 236 | 0.0 | 3.0 | 0.00 | 0.08 | 0.01 | 59 | 1012.4 |
| 20260507230303 | 62 | 237 | 0.0 | 3.0 | 0.00 | 0.08 | 0.01 | 59 | 1012.4 |
| 20260507230204 | 62 | 231 | 0.0 | 3.0 | 0.00 | 0.08 | 0.01 | 53 | 1012.4 |
| 20260507230005 | 63 | 255 | 0.0 | 3.0 | 0.00 | 0.08 | 0.01 | 55 | 1012.5 |
| 20260507225903 | 63 | 259 | 0.0 | 3.0 | 0.00 | 0.08 | 0.01 | 55 | 1012.5 |
| 20260507225803 | 63 | 264 | 0.0 | 3.0 | 0.00 | 0.08 | 0.01 | 54 | 1012.5 |
| 20260507225704 | 63 | 273 | 0.0 | 3.0 | 0.00 | 0.08 | 0.01 | 52 | 1012.5 |
| 20260507225604 | 63 | 274 | 0.0 | 3.0 | 0.00 | 0.08 | 0.01 | 53 | 1012.5 |
| 20260507225503 | 63 | 281 | 0.0 | 3.0 | 0.00 | 0.08 | 0.01 | 53 | 1012.5 |
| 20260507225404 | 63 | 282 | 0.0 | 3.0 | 0.00 | 0.08 | 0.01 | 52 | 1012.5 |
| 20260507225306 | 63 | 286 | 0.0 | 3.0 | 0.00 | 0.08 | 0.01 | 50 | 1012.6 |
| 20260507225203 | 63 | 308 | 0.0 | 3.0 | 0.00 | 0.08 | 0.01 | 54 | 1012.6 |
| 20260507225103 | 63 | 290 | 0.0 | 3.0 | 0.00 | 0.08 | 0.01 | 52 | 1012.6 |
| 20260507225003 | 63 | 284 | 0.0 | 3.0 | 0.00 | 0.08 | 0.01 | 49 | 1012.6 |
| 20260507224903 | 63 | 283 | 0.0 | 3.0 | 0.00 | 0.08 | 0.01 | 50 | 1012.6 |
| 20260507224803 | 63 | 283 | 1.0 | 4.0 | 0.00 | 0.08 | 0.01 | 52 | 1012.5 |
| 20260507224705 | 63 | 287 | 1.0 | 4.0 | 0.00 | 0.08 | 0.01 | 52 | 1012.6 |
| 20260507224603 | 63 | 292 | 1.0 | 4.0 | 0.00 | 0.08 | 0.01 | 54 | 1012.6 |
| 20260507224504 | 63 | 297 | 1.0 | 4.0 | 0.00 | 0.08 | 0.01 | 51 | 1012.5 |
| 20260507224404 | 63 | 295 | 1.0 | 4.0 | 0.00 | 0.08 | 0.01 | 51 | 1012.5 |
| 20260507224204 | 63 | 285 | 1.0 | 4.0 | 0.00 | 0.08 | 0.01 | 54 | 1012.5 |
| 20260507224118 | 63 | 288 | 1.0 | 4.0 | 0.00 | 0.08 | 0.01 | 52 | 1012.5 |
| 20260507224103 | 63 | 287 | 1.0 | 4.0 | 0.00 | 0.08 | 0.01 | 51 | 1012.5 |
| 20260507224004 | 63 | 291 | 1.0 | 4.0 | 0.00 | 0.08 | 0.01 | 50 | 1012.6 |
| 20260507223803 | 64 | 295 | 1.0 | 3.0 | 0.00 | 0.08 | 0.01 | 54 | 1012.6 |
| 20260507223716 | 64 | 293 | 1.0 | 3.0 | 0.00 | 0.08 | 0.01 | 56 | 1012.6 |
| 20260507223703 | 64 | 292 | 1.0 | 3.0 | 0.00 | 0.08 | 0.01 | 56 | 1012.6 |
| 20260507223603 | 63 | 290 | 1.0 | 3.0 | 0.00 | 0.08 | 0.01 | 52 | 1012.6 |
| 20260507223404 | 64 | 299 | 1.0 | 4.0 | 0.00 | 0.08 | 0.01 | 54 | 1012.7 |
| 20260507223303 | 64 | 304 | 1.0 | 4.0 | 0.00 | 0.08 | 0.01 | 52 | 1012.7 |
| 20260507223203 | 64 | 309 | 1.0 | 4.0 | 0.00 | 0.08 | 0.01 | 52 | 1012.7 |
| 20260507223118 | 64 | 311 | 1.0 | 4.0 | 0.00 | 0.08 | 0.01 | 52 | 1012.7 |
| 20260507223104 | 64 | 312 | 1.0 | 4.0 | 0.00 | 0.08 | 0.01 | 52 | 1012.7 |
| 20260507223018 | 64 | 311 | 1.0 | 4.0 | 0.00 | 0.08 | 0.01 | 52 | 1012.7 |
| 20260507223004 | 64 | 310 | 1.0 | 4.0 | 0.00 | 0.08 | 0.01 | 52 | 1012.7 |
| 20260507222703 | 64 | 309 | 1.0 | 4.0 | 0.00 | 0.08 | 0.01 | 47 | 1012.7 |
| 20260507222603 | 64 | 308 | 1.0 | 4.0 | 0.00 | 0.08 | 0.01 | 47 | 1012.7 |
| 20260507222503 | 64 | 307 | 1.0 | 4.0 | 0.00 | 0.08 | 0.01 | 46 | 1012.7 |
| 20260507222403 | 64 | 302 | 1.0 | 4.0 | 0.00 | 0.08 | 0.01 | 50 | 1012.7 |
| 20260507222317 | 64 | 301 | 1.0 | 4.0 | 0.00 | 0.08 | 0.01 | 49 | 1012.7 |
| 20260507222306 | 64 | 303 | 1.0 | 4.0 | 0.00 | 0.08 | 0.01 | 50 | 1012.7 |
| 20260507222204 | 64 | 302 | 1.0 | 4.0 | 0.00 | 0.08 | 0.01 | 53 | 1012.7 |
| 20260507222019 | 64 | 303 | 1.0 | 4.0 | 0.00 | 0.08 | 0.01 | 48 | 1012.7 |
| 20260507222003 | 64 | 301 | 1.0 | 4.0 | 0.00 | 0.08 | 0.01 | 48 | 1012.7 |
| 20260507221903 | 64 | 295 | 1.0 | 4.0 | 0.00 | 0.08 | 0.01 | 50 | 1012.8 |
| 20260507221703 | 64 | 295 | 1.0 | 4.0 | 0.00 | 0.08 | 0.01 | 50 | 1012.8 |
| 20260507221603 | 64 | 295 | 1.0 | 4.0 | 0.00 | 0.08 | 0.01 | 53 | 1012.8 |
| 20260507221503 | 64 | 296 | 1.0 | 4.0 | 0.00 | 0.08 | 0.01 | 49 | 1012.8 |
| 20260507221404 | 64 | 296 | 1.0 | 4.0 | 0.00 | 0.08 | 0.01 | 48 | 1012.8 |
| 20260507221303 | 64 | 297 | 1.0 | 4.0 | 0.00 | 0.08 | 0.01 | 51 | 1012.8 |
| 20260507221217 | 64 | 297 | 1.0 | 4.0 | 0.00 | 0.08 | 0.01 | 48 | 1012.8 |
| 20260507221103 | 64 | 289 | 1.0 | 4.0 | 0.00 | 0.08 | 0.01 | 50 | 1012.8 |
| 20260507220903 | 64 | 293 | 1.0 | 3.0 | 0.00 | 0.08 | 0.01 | 49 | 1012.7 |
| 20260507220804 | 64 | 305 | 1.0 | 6.0 | 0.00 | 0.08 | 0.01 | 49 | 1012.8 |
| 20260507220704 | 64 | 313 | 1.0 | 6.0 | 0.00 | 0.08 | 0.01 | 49 | 1012.8 |
| 20260507220617 | 64 | 315 | 1.0 | 6.0 | 0.00 | 0.08 | 0.01 | 48 | 1012.8 |
| 20260507220604 | 64 | 317 | 1.0 | 6.0 | 0.00 | 0.08 | 0.01 | 48 | 1012.8 |
| 20260507220503 | 65 | 322 | 1.0 | 6.0 | 0.00 | 0.08 | 0.01 | 48 | 1012.8 |
| 20260507220303 | 65 | 304 | 1.0 | 6.0 | 0.00 | 0.08 | 0.01 | 52 | 1012.8 |
| 20260507220203 | 65 | 303 | 1.0 | 6.0 | 0.00 | 0.08 | 0.01 | 51 | 1012.8 |
| 20260507220003 | 65 | 293 | 1.0 | 6.0 | 0.00 | 0.08 | 0.01 | 48 | 1012.8 |
| 20260507215903 | 65 | 293 | 1.0 | 6.0 | 0.00 | 0.08 | 0.01 | 48 | 1012.8 |
| 20260507215804 | 65 | 280 | 1.0 | 5.0 | 0.00 | 0.08 | 0.01 | 50 | 1012.8 |
| 20260507215704 | 65 | 262 | 1.0 | 3.0 | 0.00 | 0.08 | 0.01 | 47 | 1012.8 |
| 20260507215603 | 65 | 213 | 1.0 | 4.0 | 0.00 | 0.08 | 0.01 | 51 | 1012.8 |
| 20260507215503 | 64 | 196 | 1.0 | 4.0 | 0.00 | 0.08 | 0.01 | 49 | 1012.7 |
| 20260507215404 | 64 | 197 | 1.0 | 7.0 | 0.00 | 0.08 | 0.01 | 50 | 1012.7 |
| 20260507215306 | 64 | 200 | 1.0 | 7.0 | 0.00 | 0.08 | 0.01 | 51 | 1012.7 |
| 20260507215203 | 64 | 199 | 1.0 | 7.0 | 0.00 | 0.08 | 0.01 | 47 | 1012.7 |
| 20260507215118 | 64 | 208 | 1.0 | 7.0 | 0.00 | 0.08 | 0.01 | 49 | 1012.7 |
| 20260507215103 | 64 | 211 | 1.0 | 7.0 | 0.00 | 0.08 | 0.01 | 49 | 1012.7 |
| 20260507215018 | 64 | 218 | 1.0 | 7.0 | 0.00 | 0.08 | 0.01 | 53 | 1012.7 |
| 20260507215003 | 64 | 221 | 1.0 | 7.0 | 0.00 | 0.08 | 0.01 | 53 | 1012.6 |
| 20260507214703 | 65 | 232 | 1.0 | 7.0 | 0.00 | 0.08 | 0.01 | 48 | 1012.7 |
| 20260507214603 | 65 | 223 | 1.0 | 7.0 | 0.00 | 0.08 | 0.01 | 46 | 1012.7 |
| 20260507214504 | 65 | 204 | 1.0 | 7.0 | 0.00 | 0.08 | 0.01 | 48 | 1012.6 |
| 20260507214404 | 65 | 186 | 1.0 | 6.0 | 0.00 | 0.08 | 0.01 | 49 | 1012.6 |
| 20260507214317 | 65 | 175 | 1.0 | 6.0 | 0.00 | 0.08 | 0.01 | 49 | 1012.6 |
| 20260507214304 | 65 | 173 | 1.0 | 6.0 | 0.00 | 0.08 | 0.01 | 49 | 1012.6 |
| 20260507214219 | 65 | 168 | 1.0 | 6.0 | 0.00 | 0.08 | 0.01 | 51 | 1012.6 |
| 20260507214203 | 65 | 166 | 1.0 | 6.0 | 0.00 | 0.08 | 0.01 | 52 | 1012.6 |
| 20260507214018 | 65 | 159 | 2.0 | 6.0 | 0.00 | 0.08 | 0.01 | 47 | 1012.5 |
| 20260507213917 | 65 | 161 | 2.0 | 6.0 | 0.00 | 0.08 | 0.01 | 50 | 1012.5 |
| 20260507213904 | 65 | 163 | 2.0 | 6.0 | 0.00 | 0.08 | 0.01 | 50 | 1012.5 |
| 20260507213603 | 65 | 173 | 1.0 | 4.0 | 0.00 | 0.08 | 0.01 | 52 | 1012.5 |
| 20260507213504 | 65 | 180 | 1.0 | 4.0 | 0.00 | 0.08 | 0.01 | 50 | 1012.5 |
| 20260507213403 | 65 | 195 | 1.0 | 4.0 | 0.00 | 0.08 | 0.01 | 51 | 1012.5 |
| 20260507213303 | 65 | 210 | 1.0 | 4.0 | 0.00 | 0.08 | 0.01 | 54 | 1012.5 |
| 20260507213203 | 65 | 234 | 1.0 | 4.0 | 0.00 | 0.08 | 0.01 | 49 | 1012.5 |
| 20260507213103 | 65 | 264 | 1.0 | 4.0 | 0.00 | 0.08 | 0.01 | 52 | 1012.5 |
| 20260507213003 | 65 | 283 | 1.0 | 4.0 | 0.00 | 0.08 | 0.01 | 48 | 1012.5 |
| 20260507212905 | 65 | 318 | 1.0 | 5.0 | 0.00 | 0.08 | 0.01 | 48 | 1012.5 |
| 20260507212804 | 65 | 328 | 1.0 | 5.0 | 0.00 | 0.08 | 0.01 | 47 | 1012.6 |
| 20260507212703 | 65 | 348 | 1.0 | 5.0 | 0.00 | 0.08 | 0.01 | 50 | 1012.5 |
| 20260507212604 | 66 | 2 | 2.0 | 5.0 | 0.00 | 0.08 | 0.01 | 48 | 1012.5 |
| 20260507212503 | 66 | 9 | 2.0 | 5.0 | 0.00 | 0.08 | 0.01 | 48 | 1012.4 |
| 20260507212403 | 66 | 10 | 2.0 | 5.0 | 0.00 | 0.08 | 0.01 | 52 | 1012.4 |
| 20260507212306 | 66 | 14 | 2.0 | 5.0 | 0.00 | 0.08 | 0.01 | 54 | 1012.4 |
| 20260507212203 | 65 | 13 | 2.0 | 5.0 | 0.00 | 0.08 | 0.01 | 53 | 1012.4 |
| 20260507212104 | 65 | 19 | 2.0 | 5.0 | 0.00 | 0.08 | 0.01 | 52 | 1012.4 |
| 20260507212004 | 65 | 18 | 1.0 | 5.0 | 0.00 | 0.08 | 0.01 | 50 | 1012.4 |
| 20260507211904 | 65 | 15 | 1.0 | 4.0 | 0.00 | 0.08 | 0.01 | 52 | 1012.4 |
| 20260507211803 | 66 | 315 | 1.0 | 4.0 | 0.00 | 0.08 | 0.01 | 48 | 1012.4 |
| 20260507211703 | 66 | 298 | 1.0 | 4.0 | 0.00 | 0.08 | 0.01 | 48 | 1012.5 |
| 20260507211604 | 66 | 287 | 1.0 | 4.0 | 0.00 | 0.08 | 0.01 | 53 | 1012.5 |
| 20260507211517 | 66 | 295 | 1.0 | 4.0 | 0.00 | 0.08 | 0.01 | 50 | 1012.4 |
| 20260507211503 | 66 | 296 | 1.0 | 4.0 | 0.00 | 0.08 | 0.01 | 50 | 1012.4 |
| 20260507211404 | 66 | 286 | 1.0 | 4.0 | 0.00 | 0.08 | 0.01 | 53 | 1012.4 |
| 20260507211219 | 65 | 276 | 1.0 | 3.0 | 0.00 | 0.09 | 0.01 | 57 | 1012.3 |
| 20260507211203 | 65 | 277 | 1.0 | 3.0 | 0.00 | 0.09 | 0.01 | 57 | 1012.3 |
| 20260507211118 | 65 | 279 | 1.0 | 3.0 | 0.00 | 0.09 | 0.01 | 51 | 1012.3 |
| 20260507211103 | 65 | 280 | 1.0 | 3.0 | 0.00 | 0.09 | 0.01 | 51 | 1012.3 |
| 20260507210803 | 66 | 296 | 1.0 | 5.0 | 0.00 | 0.09 | 0.01 | 50 | 1012.4 |
| 20260507210704 | 66 | 286 | 1.0 | 5.0 | 0.00 | 0.09 | 0.01 | 46 | 1012.4 |
| 20260507210603 | 66 | 279 | 1.0 | 5.0 | 0.00 | 0.09 | 0.01 | 46 | 1012.4 |
| 20260507210503 | 66 | 276 | 2.0 | 5.0 | 0.00 | 0.09 | 0.01 | 47 | 1012.4 |
| 20260507210403 | 66 | 285 | 2.0 | 5.0 | 0.00 | 0.09 | 0.01 | 47 | 1012.4 |
| 20260507210303 | 66 | 290 | 2.0 | 5.0 | 0.00 | 0.09 | 0.01 | 46 | 1012.4 |
| 20260507210203 | 66 | 294 | 2.0 | 5.0 | 0.00 | 0.09 | 0.01 | 50 | 1012.4 |
| 20260507210117 | 66 | 295 | 2.0 | 5.0 | 0.00 | 0.09 | 0.01 | 46 | 1012.4 |
| 20260507210103 | 66 | 295 | 2.0 | 5.0 | 0.00 | 0.09 | 0.01 | 49 | 1012.4 |
| 20260507205803 | 66 | 305 | 1.0 | 5.0 | 0.00 | 0.09 | 0.01 | 46 | 1012.4 |
| 20260507205704 | 66 | 318 | 1.0 | 5.0 | 0.00 | 0.09 | 0.01 | 47 | 1012.4 |
| 20260507205616 | 66 | 334 | 1.0 | 5.0 | 0.00 | 0.09 | 0.01 | 46 | 1012.4 |
| 20260507205604 | 66 | 338 | 1.0 | 5.0 | 0.00 | 0.09 | 0.01 | 46 | 1012.4 |
| 20260507205503 | 66 | 345 | 1.0 | 5.0 | 0.00 | 0.09 | 0.01 | 48 | 1012.4 |
| 20260507205306 | 66 | 3 | 1.0 | 4.0 | 0.00 | 0.09 | 0.01 | 49 | 1012.4 |
| 20260507205204 | 66 | 9 | 2.0 | 4.0 | 0.00 | 0.09 | 0.01 | 48 | 1012.4 |
| 20260507205103 | 66 | 13 | 2.0 | 5.0 | 0.00 | 0.09 | 0.01 | 49 | 1012.4 |
| 20260507205018 | 66 | 15 | 2.0 | 5.0 | 0.00 | 0.09 | 0.01 | 48 | 1012.4 |
| 20260507205003 | 66 | 15 | 2.0 | 5.0 | 0.00 | 0.09 | 0.01 | 50 | 1012.4 |
| 20260507204917 | 66 | 15 | 2.0 | 5.0 | 0.00 | 0.09 | 0.01 | 50 | 1012.4 |
| 20260507204904 | 66 | 16 | 2.0 | 5.0 | 0.00 | 0.09 | 0.01 | 52 | 1012.4 |
| 20260507204718 | 65 | 16 | 2.0 | 5.0 | 0.00 | 0.09 | 0.01 | 49 | 1012.4 |
| 20260507204603 | 65 | 18 | 2.0 | 5.0 | 0.00 | 0.09 | 0.01 | 53 | 1012.4 |
| 20260507204517 | 65 | 20 | 2.0 | 5.0 | 0.00 | 0.09 | 0.01 | 51 | 1012.4 |
| 20260507204404 | 66 | 34 | 2.0 | 5.0 | 0.00 | 0.09 | 0.01 | 47 | 1012.4 |
| 20260507204318 | 66 | 29 | 2.0 | 5.0 | 0.00 | 0.09 | 0.01 | 47 | 1012.4 |
| 20260507204203 | 66 | 112 | 2.0 | 6.0 | 0.00 | 0.09 | 0.01 | 50 | 1012.4 |
| 20260507204004 | 66 | 187 | 2.0 | 6.0 | 0.00 | 0.09 | 0.01 | 48 | 1012.4 |
| 20260507203904 | 66 | 200 | 2.0 | 6.0 | 0.00 | 0.09 | 0.01 | 50 | 1012.5 |
| 20260507203817 | 66 | 221 | 2.0 | 7.0 | 0.00 | 0.09 | 0.01 | 48 | 1012.5 |
| 20260507203803 | 66 | 226 | 2.0 | 7.0 | 0.00 | 0.09 | 0.01 | 48 | 1012.4 |
| 20260507203703 | 66 | 231 | 2.0 | 7.0 | 0.00 | 0.09 | 0.01 | 47 | 1012.4 |
| 20260507203504 | 66 | 246 | 2.0 | 7.0 | 0.00 | 0.10 | 0.01 | 46 | 1012.5 |
| 20260507203404 | 66 | 267 | 2.0 | 7.0 | 0.00 | 0.10 | 0.01 | 49 | 1012.5 |
| 20260507203303 | 66 | 275 | 2.0 | 7.0 | 0.00 | 0.10 | 0.01 | 50 | 1012.5 |
| 20260507203219 | 66 | 296 | 2.0 | 7.0 | 0.00 | 0.10 | 0.01 | 48 | 1012.5 |
| 20260507203203 | 66 | 302 | 2.0 | 7.0 | 0.00 | 0.10 | 0.01 | 49 | 1012.5 |
| 20260507203103 | 66 | 314 | 2.0 | 7.0 | 0.00 | 0.10 | 0.01 | 48 | 1012.5 |
| 20260507202903 | 66 | 315 | 2.0 | 7.0 | 0.00 | 0.11 | 0.01 | 49 | 1012.4 |
| 20260507202804 | 66 | 311 | 2.0 | 7.0 | 0.00 | 0.11 | 0.01 | 51 | 1012.4 |
| 20260507202703 | 66 | 303 | 2.0 | 7.0 | 0.00 | 0.11 | 0.01 | 47 | 1012.4 |
| 20260507202603 | 67 | 318 | 1.0 | 7.0 | 0.00 | 0.11 | 0.01 | 49 | 1012.5 |
| 20260507202503 | 67 | 328 | 1.0 | 7.0 | 0.00 | 0.11 | 0.01 | 54 | 1012.5 |
| 20260507202403 | 67 | 345 | 1.0 | 3.0 | 0.00 | 0.11 | 0.01 | 49 | 1012.5 |
| 20260507202306 | 67 | 2 | 2.0 | 5.0 | 0.00 | 0.11 | 0.01 | 50 | 1012.5 |
| 20260507202203 | 66 | 7 | 2.0 | 5.0 | 0.00 | 0.11 | 0.01 | 53 | 1012.5 |
| 20260507202103 | 66 | 9 | 2.0 | 5.0 | 0.00 | 0.11 | 0.01 | 50 | 1012.4 |
| 20260507202018 | 66 | 10 | 2.0 | 5.0 | 0.00 | 0.11 | 0.01 | 49 | 1012.4 |
| 20260507202005 | 66 | 12 | 2.0 | 5.0 | 0.00 | 0.11 | 0.01 | 50 | 1012.4 |
| 20260507201903 | 66 | 17 | 2.0 | 5.0 | 0.00 | 0.11 | 0.01 | 48 | 1012.4 |
| 20260507201703 | 66 | 15 | 2.0 | 5.0 | 0.00 | 0.11 | 0.01 | 53 | 1012.5 |
| 20260507201603 | 66 | 15 | 2.0 | 5.0 | 0.00 | 0.11 | 0.01 | 49 | 1012.4 |
| 20260507201504 | 66 | 4 | 2.0 | 8.0 | 0.00 | 0.11 | 0.01 | 48 | 1012.5 |
| 20260507201403 | 66 | 355 | 2.0 | 8.0 | 0.00 | 0.11 | 0.01 | 50 | 1012.5 |
| 20260507201303 | 66 | 346 | 2.0 | 8.0 | 0.00 | 0.11 | 0.01 | 51 | 1012.5 |
| 20260507201203 | 67 | 335 | 1.0 | 8.0 | 0.00 | 0.11 | 0.01 | 52 | 1012.5 |
| 20260507201103 | 67 | 328 | 1.0 | 8.0 | 0.00 | 0.11 | 0.01 | 52 | 1012.5 |
| 20260507201004 | 66 | 322 | 1.0 | 8.0 | 0.00 | 0.11 | 0.01 | 52 | 1012.4 |
| 20260507200918 | 66 | 314 | 1.0 | 8.0 | 0.00 | 0.11 | 0.01 | 49 | 1012.4 |
| 20260507200903 | 66 | 314 | 1.0 | 8.0 | 0.00 | 0.11 | 0.01 | 48 | 1012.4 |
| 20260507200804 | 67 | 310 | 1.0 | 8.0 | 0.00 | 0.11 | 0.01 | 50 | 1012.4 |
| 20260507200603 | 67 | 306 | 1.0 | 8.0 | 0.00 | 0.11 | 0.01 | 47 | 1012.5 |
| 20260507200503 | 67 | 304 | 1.0 | 5.0 | 0.00 | 0.11 | 0.01 | 52 | 1012.5 |
| 20260507200303 | 67 | 327 | 1.0 | 5.0 | 0.00 | 0.11 | 0.01 | 53 | 1012.5 |
| 20260507200203 | 67 | 340 | 1.0 | 5.0 | 0.00 | 0.11 | 0.01 | 51 | 1012.4 |
| 20260507200018 | 67 | 332 | 2.0 | 5.0 | 0.00 | 0.11 | 0.01 | 51 | 1012.5 |
| 20260507200003 | 66 | 331 | 2.0 | 5.0 | 0.00 | 0.11 | 0.01 | 51 | 1012.5 |
| 20260507195903 | 66 | 332 | 2.0 | 5.0 | 0.00 | 0.11 | 0.01 | 48 | 1012.5 |
| 20260507195704 | 66 | 35 | 1.0 | 5.0 | 0.00 | 0.11 | 0.01 | 49 | 1012.5 |
| 20260507195603 | 66 | 31 | 2.0 | 5.0 | 0.00 | 0.11 | 0.01 | 52 | 1012.5 |
| 20260507195503 | 66 | 32 | 2.0 | 8.0 | 0.00 | 0.11 | 0.01 | 53 | 1012.5 |
| 20260507195403 | 67 | 41 | 2.0 | 8.0 | 0.00 | 0.11 | 0.01 | 51 | 1012.5 |
| 20260507195306 | 67 | 41 | 2.0 | 8.0 | 0.00 | 0.11 | 0.01 | 54 | 1012.5 |
| 20260507195203 | 66 | 55 | 2.0 | 8.0 | 0.00 | 0.11 | 0.01 | 52 | 1012.5 |
| 20260507195117 | 67 | 44 | 2.0 | 8.0 | 0.00 | 0.11 | 0.01 | 50 | 1012.5 |
| 20260507195103 | 67 | 31 | 2.0 | 8.0 | 0.00 | 0.11 | 0.01 | 50 | 1012.5 |
| 20260507195017 | 67 | 23 | 2.0 | 8.0 | 0.00 | 0.11 | 0.01 | 57 | 1012.6 |
| 20260507195003 | 67 | 21 | 2.0 | 8.0 | 0.00 | 0.11 | 0.01 | 57 | 1012.6 |
| 20260507194703 | 66 | 15 | 2.0 | 8.0 | 0.00 | 0.11 | 0.01 | 56 | 1012.6 |
| 20260507194603 | 66 | 20 | 2.0 | 8.0 | 0.00 | 0.11 | 0.01 | 51 | 1012.6 |
| 20260507194503 | 66 | 20 | 2.0 | 6.0 | 0.00 | 0.11 | 0.01 | 57 | 1012.6 |
| 20260507194404 | 66 | 14 | 2.0 | 6.0 | 0.00 | 0.11 | 0.01 | 54 | 1012.6 |
| 20260507194303 | 66 | 11 | 2.0 | 6.0 | 0.00 | 0.11 | 0.01 | 50 | 1012.6 |
| 20260507194203 | 66 | 9 | 2.0 | 6.0 | 0.00 | 0.11 | 0.01 | 50 | 1012.6 |
| 20260507194119 | 66 | 14 | 2.0 | 6.0 | 0.00 | 0.11 | 0.01 | 53 | 1012.6 |
| 20260507194103 | 66 | 19 | 2.0 | 4.0 | 0.00 | 0.11 | 0.01 | 53 | 1012.6 |
| 20260507194004 | 66 | 19 | 2.0 | 4.0 | 0.00 | 0.11 | 0.01 | 50 | 1012.6 |
| 20260507193918 | 66 | 19 | 2.0 | 4.0 | 0.00 | 0.11 | 0.01 | 52 | 1012.6 |
| 20260507193804 | 66 | 12 | 2.0 | 4.0 | 0.00 | 0.11 | 0.01 | 54 | 1012.6 |
| 20260507193603 | 66 | 21 | 2.0 | 5.0 | 0.00 | 0.11 | 0.01 | 51 | 1012.7 |
| 20260507193503 | 66 | 19 | 2.0 | 5.0 | 0.00 | 0.11 | 0.01 | 55 | 1012.7 |
| 20260507193404 | 66 | 21 | 2.0 | 5.0 | 0.00 | 0.11 | 0.01 | 53 | 1012.7 |
| 20260507193318 | 66 | 23 | 2.0 | 5.0 | 0.00 | 0.11 | 0.01 | 52 | 1012.7 |
| 20260507193303 | 66 | 24 | 2.0 | 5.0 | 0.00 | 0.11 | 0.01 | 52 | 1012.7 |
| 20260507193218 | 66 | 27 | 2.0 | 5.0 | 0.00 | 0.11 | 0.01 | 55 | 1012.7 |
| 20260507193204 | 66 | 28 | 2.0 | 5.0 | 0.00 | 0.11 | 0.01 | 55 | 1012.7 |
| 20260507192903 | 66 | 29 | 2.0 | 5.0 | 0.00 | 0.11 | 0.01 | 56 | 1012.6 |
| 20260507192804 | 66 | 32 | 2.0 | 5.0 | 0.00 | 0.11 | 0.01 | 54 | 1012.6 |
| 20260507192717 | 66 | 29 | 2.0 | 5.0 | 0.00 | 0.11 | 0.01 | 52 | 1012.7 |
| 20260507192703 | 66 | 27 | 2.0 | 5.0 | 0.00 | 0.11 | 0.01 | 49 | 1012.7 |
| 20260507192618 | 66 | 24 | 2.0 | 5.0 | 0.00 | 0.11 | 0.01 | 50 | 1012.7 |
| 20260507192604 | 66 | 22 | 2.0 | 5.0 | 0.00 | 0.11 | 0.01 | 50 | 1012.7 |
| 20260507192306 | 66 | 21 | 2.0 | 5.0 | 0.00 | 0.11 | 0.01 | 54 | 1012.7 |
| 20260507192203 | 66 | 23 | 2.0 | 5.0 | 0.00 | 0.11 | 0.01 | 57 | 1012.7 |
| 20260507192103 | 66 | 24 | 2.0 | 5.0 | 0.00 | 0.11 | 0.01 | 52 | 1012.7 |
| 20260507192003 | 66 | 23 | 2.0 | 5.0 | 0.00 | 0.11 | 0.01 | 52 | 1012.7 |
| 20260507191918 | 66 | 22 | 1.0 | 5.0 | 0.00 | 0.11 | 0.01 | 56 | 1012.8 |
| 20260507191903 | 66 | 24 | 1.0 | 5.0 | 0.00 | 0.11 | 0.01 | 56 | 1012.8 |
| 20260507191803 | 66 | 29 | 1.0 | 5.0 | 0.00 | 0.12 | 0.01 | 55 | 1012.7 |
| 20260507191603 | 65 | 32 | 1.0 | 5.0 | 0.00 | 0.12 | 0.01 | 52 | 1012.8 |
| 20260507191516 | 65 | 37 | 1.0 | 5.0 | 0.00 | 0.12 | 0.01 | 52 | 1012.8 |
| 20260507191503 | 65 | 40 | 1.0 | 5.0 | 0.00 | 0.12 | 0.01 | 49 | 1012.8 |
| 20260507191403 | 65 | 46 | 1.0 | 5.0 | 0.00 | 0.12 | 0.01 | 48 | 1012.8 |
| 20260507191204 | 66 | 82 | 1.0 | 4.0 | 0.00 | 0.12 | 0.01 | 50 | 1012.8 |
| 20260507191104 | 67 | 107 | 1.0 | 4.0 | 0.00 | 0.13 | 0.01 | 52 | 1012.8 |
| 20260507191003 | 66 | 138 | 2.0 | 6.0 | 0.00 | 0.13 | 0.01 | 51 | 1012.9 |
| 20260507190903 | 67 | 165 | 2.0 | 6.0 | 0.00 | 0.13 | 0.01 | 53 | 1012.9 |
| 20260507190803 | 67 | 188 | 2.0 | 6.0 | 0.00 | 0.13 | 0.01 | 54 | 1012.8 |
| 20260507190703 | 67 | 198 | 2.0 | 6.0 | 0.00 | 0.13 | 0.01 | 52 | 1012.8 |
| 20260507190618 | 67 | 186 | 2.0 | 6.0 | 0.00 | 0.14 | 0.01 | 59 | 1012.8 |
| 20260507190603 | 67 | 192 | 2.0 | 6.0 | 0.00 | 0.14 | 0.01 | 59 | 1012.8 |
| 20260507190503 | 66 | 204 | 2.0 | 6.0 | 0.00 | 0.14 | 0.01 | 56 | 1012.8 |
| 20260507190303 | 66 | 215 | 2.0 | 6.0 | 0.00 | 0.14 | 0.01 | 52 | 1012.8 |
| 20260507190218 | 66 | 216 | 2.0 | 6.0 | 0.00 | 0.14 | 0.01 | 53 | 1012.8 |
| 20260507190204 | 66 | 218 | 2.0 | 6.0 | 0.00 | 0.14 | 0.01 | 53 | 1012.8 |
| 20260507185918 | 67 | 255 | 1.0 | 5.0 | 0.00 | 0.14 | 0.01 | 52 | 1012.8 |
| 20260507185903 | 67 | 261 | 1.0 | 5.0 | 0.00 | 0.14 | 0.01 | 52 | 1012.8 |
| 20260507185803 | 67 | 252 | 1.0 | 4.0 | 0.00 | 0.15 | 0.01 | 53 | 1012.7 |
| 20260507185603 | 66 | 302 | 1.0 | 3.0 | 0.00 | 0.15 | 0.01 | 53 | 1012.7 |
| 20260507185504 | 66 | 308 | 1.0 | 5.0 | 0.00 | 0.15 | 0.01 | 51 | 1012.7 |
| 20260507185403 | 66 | 299 | 1.0 | 5.0 | 0.00 | 0.15 | 0.01 | 55 | 1012.7 |
| 20260507185306 | 66 | 311 | 1.0 | 5.0 | 0.00 | 0.15 | 0.01 | 52 | 1012.8 |
| 20260507185203 | 66 | 316 | 1.0 | 5.0 | 0.00 | 0.15 | 0.01 | 53 | 1012.8 |
| 20260507185117 | 66 | 309 | 1.0 | 5.0 | 0.00 | 0.15 | 0.01 | 51 | 1012.8 |
| 20260507185103 | 67 | 310 | 1.0 | 5.0 | 0.00 | 0.15 | 0.01 | 51 | 1012.8 |
| 20260507185003 | 67 | 318 | 1.0 | 5.0 | 0.00 | 0.15 | 0.01 | 50 | 1012.8 |
| 20260507184803 | 67 | 291 | 1.0 | 5.0 | 0.00 | 0.15 | 0.01 | 57 | 1012.8 |
| 20260507184703 | 67 | 289 | 1.0 | 5.0 | 0.00 | 0.15 | 0.01 | 56 | 1012.8 |
| 20260507184618 | 66 | 285 | 1.0 | 5.0 | 0.00 | 0.15 | 0.01 | 56 | 1012.8 |
| 20260507184603 | 66 | 283 | 1.0 | 5.0 | 0.00 | 0.15 | 0.01 | 52 | 1012.8 |
| 20260507184504 | 66 | 273 | 1.0 | 3.0 | 0.00 | 0.15 | 0.01 | 50 | 1012.8 |
| 20260507184303 | 66 | 278 | 1.0 | 3.0 | 0.00 | 0.16 | 0.01 | 55 | 1012.9 |
| 20260507184204 | 66 | 273 | 1.0 | 3.0 | 0.00 | 0.16 | 0.01 | 53 | 1012.9 |
| 20260507184104 | 66 | 275 | 1.0 | 4.0 | 0.00 | 0.16 | 0.01 | 56 | 1012.9 |
| 20260507184004 | 66 | 270 | 1.0 | 4.0 | 0.00 | 0.16 | 0.01 | 53 | 1012.9 |
| 20260507183904 | 66 | 273 | 1.0 | 4.0 | 0.00 | 0.16 | 0.01 | 55 | 1012.9 |
| 20260507183803 | 66 | 275 | 1.0 | 4.0 | 0.00 | 0.16 | 0.01 | 57 | 1012.9 |
| 20260507183703 | 66 | 269 | 1.0 | 4.0 | 0.00 | 0.17 | 0.01 | 53 | 1012.9 |
| 20260507183504 | 66 | 255 | 1.0 | 4.0 | 0.00 | 0.17 | 0.01 | 60 | 1012.9 |
| 20260507183403 | 66 | 230 | 1.0 | 4.0 | 0.00 | 0.17 | 0.01 | 56 | 1012.9 |
| 20260507183304 | 65 | 148 | 1.0 | 4.0 | 0.00 | 0.17 | 0.01 | 56 | 1012.9 |
| 20260507183203 | 65 | 109 | 1.0 | 4.0 | 0.00 | 0.17 | 0.01 | 52 | 1012.9 |
| 20260507183103 | 65 | 110 | 1.0 | 4.0 | 0.00 | 0.17 | 0.01 | 53 | 1012.9 |
| 20260507182903 | 66 | 97 | 1.0 | 3.0 | 0.00 | 0.17 | 0.01 | 56 | 1012.9 |
| 20260507182803 | 66 | 90 | 1.0 | 3.0 | 0.00 | 0.17 | 0.01 | 55 | 1012.9 |
| 20260507182703 | 66 | 73 | 1.0 | 4.0 | 0.00 | 0.18 | 0.01 | 53 | 1012.9 |
| 20260507182604 | 66 | 59 | 1.0 | 4.0 | 0.00 | 0.18 | 0.01 | 57 | 1012.9 |
| 20260507182503 | 66 | 47 | 1.0 | 7.0 | 0.00 | 0.18 | 0.01 | 60 | 1012.9 |
| 20260507182403 | 65 | 37 | 2.0 | 7.0 | 0.00 | 0.18 | 0.01 | 60 | 1012.9 |
| 20260507182317 | 65 | 32 | 2.0 | 7.0 | 0.00 | 0.18 | 0.01 | 61 | 1012.9 |
| 20260507182306 | 65 | 31 | 2.0 | 7.0 | 0.00 | 0.18 | 0.01 | 59 | 1012.9 |
| 20260507182218 | 64 | 27 | 2.0 | 7.0 | 0.00 | 0.18 | 0.01 | 59 | 1012.9 |
| 20260507182203 | 64 | 27 | 2.0 | 7.0 | 0.00 | 0.18 | 0.01 | 58 | 1012.9 |
| 20260507182116 | 64 | 29 | 2.0 | 7.0 | 0.00 | 0.18 | 0.01 | 58 | 1012.9 |
| 20260507181803 | 64 | 29 | 3.0 | 7.0 | 0.00 | 0.18 | 0.01 | 56 | 1013.0 |
| 20260507181719 | 64 | 50 | 3.0 | 7.0 | 0.00 | 0.18 | 0.01 | 57 | 1012.9 |
| 20260507181704 | 64 | 58 | 3.0 | 7.0 | 0.00 | 0.18 | 0.01 | 55 | 1012.9 |
| 20260507181603 | 64 | 87 | 3.0 | 7.0 | 0.00 | 0.18 | 0.01 | 58 | 1012.9 |
| 20260507181404 | 64 | 116 | 2.0 | 7.0 | 0.00 | 0.18 | 0.01 | 60 | 1012.9 |
| 20260507181303 | 64 | 114 | 2.0 | 7.0 | 0.00 | 0.18 | 0.01 | 58 | 1012.9 |
| 20260507181203 | 64 | 112 | 2.0 | 7.0 | 0.00 | 0.18 | 0.01 | 56 | 1012.9 |
| 20260507181104 | 64 | 86 | 2.0 | 7.0 | 0.00 | 0.18 | 0.01 | 60 | 1012.9 |
| 20260507181003 | 64 | 132 | 2.0 | 7.0 | 0.00 | 0.18 | 0.01 | 55 | 1012.9 |
| 20260507180917 | 64 | 133 | 2.0 | 7.0 | 0.00 | 0.18 | 0.01 | 56 | 1012.9 |
| 20260507180903 | 64 | 128 | 2.0 | 7.0 | 0.00 | 0.18 | 0.01 | 56 | 1012.9 |
| 20260507180804 | 63 | 76 | 2.0 | 7.0 | 0.00 | 0.18 | 0.01 | 54 | 1012.9 |
| 20260507180603 | 64 | 3 | 1.0 | 5.0 | 0.00 | 0.18 | 0.01 | 54 | 1013.2 |
| 20260507180503 | 64 | 5 | 1.0 | 5.0 | 0.00 | 0.18 | 0.01 | 54 | 1013.2 |
| 20260507180418 | 64 | 7 | 1.0 | 5.0 | 0.00 | 0.18 | 0.01 | 54 | 1013.2 |
| 20260507180403 | 64 | 8 | 1.0 | 5.0 | 0.00 | 0.18 | 0.01 | 54 | 1013.2 |
| 20260507180304 | 64 | 352 | 1.0 | 5.0 | 0.00 | 0.18 | 0.01 | 55 | 1013.2 |
| 20260507180218 | 65 | 214 | 1.0 | 4.0 | 0.00 | 0.18 | 0.01 | 59 | 1013.2 |
| 20260507180104 | 64 | 179 | 1.0 | 3.0 | 0.00 | 0.18 | 0.01 | 56 | 1013.2 |
| 20260507180017 | 64 | 79 | 1.0 | 6.0 | 0.00 | 0.18 | 0.01 | 58 | 1013.2 |
| 20260507175903 | 64 | 84 | 1.0 | 6.0 | 0.00 | 0.18 | 0.01 | 59 | 1013.2 |
| 20260507175717 | 63 | 11 | 1.0 | 6.0 | 0.00 | 0.18 | 0.01 | 58 | 1013.2 |
| 20260507175703 | 63 | 14 | 1.0 | 6.0 | 0.00 | 0.18 | 0.01 | 58 | 1013.2 |
| 20260507175603 | 64 | 19 | 1.0 | 6.0 | 0.00 | 0.18 | 0.01 | 56 | 1013.2 |
| 20260507175518 | 64 | 19 | 2.0 | 6.0 | 0.00 | 0.18 | 0.01 | 55 | 1013.2 |
| 20260507175403 | 64 | 13 | 2.0 | 7.0 | 0.00 | 0.18 | 0.01 | 56 | 1013.3 |
| 20260507175204 | 64 | 9 | 2.0 | 7.0 | 0.00 | 0.18 | 0.01 | 56 | 1013.3 |
| 20260507175103 | 65 | 8 | 2.0 | 7.0 | 0.00 | 0.18 | 0.01 | 62 | 1013.4 |
| 20260507175004 | 65 | 6 | 2.0 | 7.0 | 0.00 | 0.18 | 0.01 | 57 | 1013.4 |
| 20260507174903 | 65 | 344 | 2.0 | 7.0 | 0.00 | 0.18 | 0.01 | 56 | 1013.4 |
| 20260507174803 | 65 | 350 | 2.0 | 7.0 | 0.00 | 0.18 | 0.01 | 54 | 1013.4 |
| 20260507174703 | 65 | 8 | 2.0 | 7.0 | 0.00 | 0.18 | 0.01 | 50 | 1013.4 |
| 20260507174603 | 66 | 354 | 2.0 | 7.0 | 0.00 | 0.18 | 0.01 | 57 | 1013.5 |
| 20260507174504 | 66 | 341 | 1.0 | 7.0 | 0.00 | 0.18 | 0.01 | 53 | 1013.5 |
| 20260507174416 | 66 | 204 | 2.0 | 7.0 | 0.00 | 0.18 | 0.01 | 53 | 1013.5 |
| 20260507174403 | 66 | 191 | 2.0 | 7.0 | 0.00 | 0.18 | 0.01 | 53 | 1013.5 |
| 20260507174304 | 66 | 188 | 2.0 | 7.0 | 0.00 | 0.18 | 0.01 | 54 | 1013.5 |
| 20260507174218 | 66 | 196 | 2.0 | 7.0 | 0.00 | 0.18 | 0.01 | 54 | 1013.5 |
| 20260507174104 | 66 | 266 | 2.0 | 7.0 | 0.00 | 0.18 | 0.01 | 55 | 1013.7 |